FW4770 Weather Reports


time (UTC)temp
C
wind
direction
speed
KPH
gust
KPH
rain 1hr
cm
rain 24hr
cm
rain mn
cm
humidity
%
barometer
mb
20260508023926 6 57 0.0 1.6 0.00 0.00 0.00 60 1010.1
20260508023810 6 57 0.0 1.6 0.00 0.00 0.00 60 1010.2
20260508023734 6 56 0.0 3.2 0.00 0.00 0.00 59 1010.1
20260508023622 6 57 0.0 3.2 0.00 0.00 0.00 59 1010.1
20260508023507 6 57 0.0 3.2 0.00 0.00 0.00 59 1010.1
20260508023413 7 57 1.6 3.2 0.00 0.00 0.00 59 1010.1
20260508023318 7 57 1.6 3.2 0.00 0.00 0.00 58 1010.1
20260508023222 7 57 1.6 3.2 0.00 0.00 0.00 58 1010.1
20260508023110 7 57 1.6 3.2 0.00 0.00 0.00 58 1010.1
20260508023014 7 57 1.6 3.2 0.00 0.00 0.00 58 1010.1
20260508022919 7 57 1.6 3.2 0.00 0.00 0.00 58 1010.1
20260508022844 7 57 3.2 3.2 0.00 0.00 0.00 58 1010.1
20260508022727 7 57 1.6 3.2 0.00 0.00 0.00 58 1010.1
20260508022652 7 57 1.6 3.2 0.00 0.00 0.00 58 1010.0
20260508022508 7 57 1.6 3.2 0.00 0.00 0.00 59 1010.1
20260508022417 7 57 1.6 3.2 0.00 0.00 0.00 58 1010.1
20260508022342 7 57 1.6 3.2 0.00 0.00 0.00 57 1010.2
20260508022206 7 57 1.6 3.2 0.00 0.00 0.00 56 1010.1
20260508022129 7 57 1.6 3.2 0.00 0.00 0.00 56 1010.1
20260508022033 7 57 1.6 1.6 0.00 0.00 0.00 55 1010.1
20260508021916 7 57 0.0 1.6 0.00 0.00 0.00 54 1010.0
20260508021820 7 57 0.0 1.6 0.00 0.00 0.00 54 1010.1
20260508021709 7 57 0.0 1.6 0.00 0.00 0.00 54 1010.1
20260508021613 7 57 0.0 1.6 0.00 0.00 0.00 54 1010.1
20260508021517 8 57 0.0 1.6 0.00 0.00 0.00 55 1010.1
20260508021440 8 57 0.0 1.6 0.00 0.00 0.00 53 1010.0
20260508021325 8 57 0.0 3.2 0.00 0.00 0.00 53 1010.0
20260508021228 8 57 0.0 4.8 0.00 0.00 0.00 53 1010.0
20260508021110 8 57 0.0 4.8 0.00 0.00 0.00 53 1010.1
20260508021019 8 57 0.0 4.8 0.00 0.00 0.00 54 1010.0
20260508020923 8 57 0.0 6.4 0.00 0.00 0.00 54 1010.0
20260508020807 8 57 0.0 8.0 0.00 0.00 0.00 53 1010.0
20260508020732 8 57 0.0 8.0 0.00 0.00 0.00 54 1010.0
20260508020607 8 57 1.6 8.0 0.00 0.00 0.00 55 1010.0
20260508020512 8 57 3.2 8.0 0.00 0.00 0.00 52 1010.0
20260508020421 8 57 3.2 8.0 0.00 0.00 0.00 52 1010.0
20260508020305 8 57 4.8 8.0 0.00 0.00 0.00 53 1010.0
20260508020230 8 57 4.8 8.0 0.00 0.00 0.00 53 1010.0
20260508020106 8 56 3.2 8.0 0.00 0.00 0.00 51 1009.9
20260508020010 8 55 0.0 6.4 0.00 0.00 0.00 49 1010.0
20260508015914 9 292 0.0 3.2 0.00 0.00 0.00 50 1010.0
20260508015819 9 292 1.6 3.2 0.00 0.00 0.00 49 1009.9
20260508015709 9 292 1.6 3.2 0.00 0.00 0.00 49 1010.0
20260508015632 9 292 1.6 3.2 0.00 0.00 0.00 50 1009.9
20260508015516 9 292 1.6 3.2 0.00 0.00 0.00 48 1009.9
20260508015420 9 292 1.6 3.2 0.00 0.00 0.00 51 1009.9
20260508015306 9 292 1.6 3.2 0.00 0.00 0.00 45 1009.9
20260508015209 10 292 1.6 3.2 0.00 0.00 0.00 45 1009.9
20260508015117 10 292 1.6 3.2 0.00 0.00 0.00 45 1009.9
20260508015020 10 292 1.6 3.2 0.00 0.00 0.00 45 1009.9
20260508014906 10 292 1.6 3.2 0.00 0.00 0.00 45 1009.9
20260508014810 10 292 1.6 3.2 0.00 0.00 0.00 45 1009.9
20260508014716 10 292 1.6 3.2 0.00 0.00 0.00 45 1009.8
20260508014639 10 292 1.6 3.2 0.00 0.00 0.00 46 1009.8
20260508014506 10 292 1.6 3.2 0.00 0.00 0.00 45 1009.8
20260508014431 10 292 1.6 3.2 0.00 0.00 0.00 45 1009.8
20260508014314 10 292 1.6 3.2 0.00 0.00 0.00 44 1009.8
20260508014219 10 292 1.6 3.2 0.00 0.00 0.00 43 1009.8
20260508014121 10 292 1.6 3.2 0.00 0.00 0.00 44 1009.7
20260508014025 10 292 1.6 3.2 0.00 0.00 0.00 45 1009.8
20260508013929 10 292 1.6 3.2 0.00 0.00 0.00 44 1009.8
20260508013816 10 292 1.6 3.2 0.00 0.00 0.00 44 1009.8
20260508013720 10 292 1.6 3.2 0.00 0.00 0.00 44 1009.8
20260508013625 10 292 1.6 3.2 0.00 0.00 0.00 44 1009.8
20260508013529 10 292 1.6 3.2 0.00 0.00 0.00 44 1009.8
20260508013413 11 292 1.6 3.2 0.00 0.00 0.00 43 1009.7
20260508013337 11 292 1.6 3.2 0.00 0.00 0.00 43 1009.7
20260508013241 11 292 1.6 6.4 0.00 0.00 0.00 43 1009.7
20260508013107 11 292 1.6 6.4 0.00 0.00 0.00 43 1009.7
20260508013011 11 292 1.6 6.4 0.00 0.00 0.00 43 1009.7
20260508012916 11 292 1.6 6.4 0.00 0.00 0.00 44 1009.6
20260508012821 11 293 1.6 6.4 0.00 0.00 0.00 44 1009.7
20260508012724 11 293 1.6 6.4 0.00 0.00 0.00 44 1009.7
20260508012610 11 293 3.2 6.4 0.00 0.00 0.00 44 1009.6
20260508012517 11 293 3.2 6.4 0.00 0.00 0.00 44 1009.7
20260508012422 11 286 3.2 6.4 0.00 0.00 0.00 43 1009.7
20260508012308 11 330 3.2 6.4 0.00 0.00 0.00 42 1009.6
20260508012210 11 331 3.2 11.3 0.00 0.00 0.00 43 1009.7
20260508012115 11 331 3.2 11.3 0.00 0.00 0.00 44 1009.6
20260508012039 11 286 3.2 11.3 0.00 0.00 0.00 45 1009.7
20260508011927 11 296 3.2 11.3 0.00 0.00 0.00 46 1009.7
20260508011851 11 296 3.2 11.3 0.00 0.00 0.00 46 1009.6
20260508011705 11 296 4.8 11.3 0.00 0.00 0.00 43 1009.6
20260508011610 11 296 4.8 12.9 0.00 0.00 0.00 43 1009.6
20260508011514 12 309 4.8 12.9 0.00 0.00 0.00 43 1009.6
20260508011418 12 284 6.4 12.9 0.00 0.00 0.00 43 1009.7
20260508011343 12 286 6.4 12.9 0.00 0.00 0.00 43 1009.6
20260508011231 12 306 6.4 12.9 0.00 0.00 0.00 41 1009.5
20260508011108 12 303 6.4 12.9 0.00 0.00 0.00 42 1009.6
20260508011011 12 317 6.4 12.9 0.00 0.00 0.00 40 1009.6
20260508010915 12 298 6.4 12.9 0.00 0.00 0.00 41 1009.6
20260508010819 12 323 6.4 12.9 0.00 0.00 0.00 40 1009.6
20260508010743 12 300 8.0 12.9 0.00 0.00 0.00 41 1009.5
20260508010610 12 298 8.0 12.9 0.00 0.00 0.00 42 1009.5
20260508010534 12 296 6.4 12.9 0.00 0.00 0.00 42 1009.6
20260508010417 12 304 4.8 12.9 0.00 0.00 0.00 41 1009.6
20260508010321 12 280 4.8 12.9 0.00 0.00 0.00 41 1009.6
20260508010206 12 283 6.4 12.9 0.00 0.00 0.00 40 1009.6
20260508010110 12 294 6.4 12.9 0.00 0.00 0.00 39 1009.5
20260508010013 12 310 4.8 12.9 0.00 0.00 0.00 40 1009.6
20260508005920 12 293 4.8 12.9 0.00 0.00 0.00 40 1009.5
20260508005805 12 302 6.4 12.9 0.00 0.00 0.00 39 1009.5
20260508005710 12 296 9.7 12.9 0.00 0.00 0.00 38 1009.5
20260508005616 12 286 9.7 12.9 0.00 0.00 0.00 38 1009.6
20260508005520 12 296 8.0 12.9 0.00 0.00 0.00 39 1009.5
20260508005408 13 306 6.4 16.1 0.00 0.00 0.00 39 1009.5
20260508005311 13 300 6.4 16.1 0.00 0.00 0.00 38 1009.5
20260508005215 13 293 6.4 16.1 0.00 0.00 0.00 37 1009.5
20260508005139 13 299 6.4 16.1 0.00 0.00 0.00 38 1009.5
20260508005023 13 348 8.0 16.1 0.00 0.00 0.00 36 1009.5
20260508004908 13 319 6.4 19.3 0.00 0.00 0.00 37 1009.5
20260508004813 13 311 8.0 19.3 0.00 0.00 0.00 38 1009.5
20260508004722 13 311 9.7 19.3 0.00 0.00 0.00 37 1009.5
20260508004606 13 302 8.0 20.9 0.00 0.00 0.00 37 1009.5
20260508004511 13 335 8.0 20.9 0.00 0.00 0.00 36 1009.4
20260508004435 13 301 8.0 20.9 0.00 0.00 0.00 36 1009.4
20260508004318 13 310 6.4 20.9 0.00 0.00 0.00 36 1009.5
20260508004223 13 313 8.0 20.9 0.00 0.00 0.00 37 1009.5
20260508004132 13 317 11.3 20.9 0.00 0.00 0.00 35 1009.4
20260508004007 13 5 12.9 20.9 0.00 0.00 0.00 36 1009.4
20260508003911 13 323 12.9 20.9 0.00 0.00 0.00 35 1009.5
20260508003836 13 327 9.7 20.9 0.00 0.00 0.00 36 1009.5
20260508003719 13 355 11.3 20.9 0.00 0.00 0.00 37 1009.5
20260508003624 13 350 11.3 17.7 0.00 0.00 0.00 37 1009.5
20260508003529 13 298 8.0 16.1 0.00 0.00 0.00 37 1009.6
20260508003417 13 323 8.0 16.1 0.00 0.00 0.00 36 1009.6
20260508003321 13 312 8.0 16.1 0.00 0.00 0.00 37 1009.6
20260508003245 13 10 6.4 16.1 0.00 0.00 0.00 37 1009.6
20260508003128 13 350 4.8 16.1 0.00 0.00 0.00 37 1009.6
20260508003006 13 304 6.4 16.1 0.00 0.00 0.00 37 1009.6
20260508002910 13 326 6.4 16.1 0.00 0.00 0.00 36 1009.6
20260508002813 13 296 6.4 16.1 0.00 0.00 0.00 36 1009.5
20260508002720 13 298 9.7 16.1 0.00 0.00 0.00 35 1009.5
20260508002606 13 316 12.9 16.1 0.00 0.00 0.00 36 1009.5
20260508002509 13 302 11.3 16.1 0.00 0.00 0.00 35 1009.5
20260508002414 13 318 9.7 16.1 0.00 0.00 0.00 36 1009.5
20260508002317 13 320 9.7 16.1 0.00 0.00 0.00 37 1009.5
20260508002220 13 287 8.0 16.1 0.00 0.00 0.00 36 1009.5
20260508002129 13 291 6.4 16.1 0.00 0.00 0.00 36 1009.6
20260508002006 13 321 6.4 12.9 0.00 0.00 0.00 36 1009.6
20260508001909 13 300 4.8 12.9 0.00 0.00 0.00 36 1009.5
20260508001811 13 302 4.8 12.9 0.00 0.00 0.00 36 1009.6
20260508001714 13 346 4.8 12.9 0.00 0.00 0.00 38 1009.5
20260508001618 13 328 4.8 16.1 0.00 0.00 0.00 36 1009.5
20260508001525 13 306 6.4 16.1 0.00 0.00 0.00 36 1009.6
20260508001409 13 315 6.4 16.1 0.00 0.00 0.00 34 1009.6
20260508001312 13 5 4.8 16.1 0.00 0.00 0.00 35 1009.6
20260508001214 13 355 4.8 16.1 0.00 0.00 0.00 36 1009.6
20260508001118 13 360 6.4 17.7 0.00 0.00 0.00 35 1009.6
20260508001039 13 329 8.0 17.7 0.00 0.00 0.00 35 1009.6
20260508000927 13 346 8.0 17.7 0.00 0.00 0.00 35 1009.6
20260508000829 13 315 8.0 17.7 0.00 0.00 0.00 35 1009.6
20260508000752 13 355 9.7 17.7 0.00 0.00 0.00 34 1009.6
20260508000607 13 350 9.7 17.7 0.00 0.00 0.00 35 1009.7
20260508000511 13 5 11.3 17.7 0.00 0.00 0.00 35 1009.7
20260508000413 13 315 9.7 19.3 0.00 0.00 0.00 36 1009.6
20260508000317 13 347 8.0 19.3 0.00 0.00 0.00 35 1009.7
20260508000242 13 331 8.0 19.3 0.00 0.00 0.00 35 1009.6
20260508000106 13 316 9.7 19.3 0.00 0.00 0.00 35 1009.5
20260508000030 13 333 11.3 25.7 0.00 0.00 0.00 35 1009.6
20260507235913 13 312 11.3 25.7 0.00 0.00 0.00 35 1009.6
20260507235835 13 328 9.7 25.7 0.00 0.00 0.00 34 1009.6
20260507235717 13 324 11.3 25.7 0.00 0.00 0.00 35 1009.7
20260507235620 13 346 12.9 25.7 0.00 0.00 0.00 34 1009.7
20260507235507 13 333 12.9 25.7 0.00 0.00 0.00 35 1009.7
20260507235410 13 284 12.9 27.4 0.00 0.00 0.00 35 1009.7
20260507235313 13 338 16.1 27.4 0.00 0.00 0.00 34 1009.7
20260507235216 13 302 17.7 27.4 0.00 0.00 0.00 34 1009.6
20260507235120 13 312 17.7 27.4 0.00 0.00 0.00 34 1009.6
20260507235023 13 313 14.5 27.4 0.00 0.00 0.00 35 1009.6
20260507234909 13 319 14.5 27.4 0.00 0.00 0.00 35 1009.5
20260507234831 13 277 16.1 27.4 0.00 0.00 0.00 35 1009.6
20260507234707 13 300 16.1 27.4 0.00 0.00 0.00 35 1009.6
20260507234631 13 300 16.1 27.4 0.00 0.00 0.00 35 1009.7
20260507234513 13 338 12.9 27.4 0.00 0.00 0.00 33 1009.8
20260507234413 13 355 12.9 27.4 0.00 0.00 0.00 35 1009.7
20260507234315 13 317 11.3 27.4 0.00 0.00 0.00 34 1009.7
20260507234223 13 336 9.7 22.5 0.00 0.00 0.00 33 1009.7
20260507234107 13 307 6.4 14.5 0.00 0.00 0.00 36 1009.7
20260507234009 13 317 4.8 19.3 0.00 0.00 0.00 36 1009.8
20260507233912 13 292 8.0 19.3 0.00 0.00 0.00 35 1009.8
20260507233836 13 319 8.0 19.3 0.00 0.00 0.00 34 1009.8
20260507233718 13 318 9.7 19.3 0.00 0.00 0.00 33 1009.9
20260507233606 13 18 8.0 19.3 0.00 0.00 0.00 34 1009.9
20260507233508 13 355 6.4 19.3 0.00 0.00 0.00 35 1009.8
20260507233431 13 331 4.8 19.3 0.00 0.00 0.00 36 1009.8
20260507233307 13 355 9.7 20.9 0.00 0.00 0.00 34 1009.8
20260507233210 13 360 12.9 20.9 0.00 0.00 0.00 33 1009.8
20260507233133 13 30 11.3 20.9 0.00 0.00 0.00 33 1009.8
20260507233036 14 5 11.3 20.9 0.00 0.00 0.00 33 1009.9
20260507232919 14 355 9.7 20.9 0.00 0.00 0.00 32 1009.7
20260507232826 14 29 9.7 20.9 0.00 0.00 0.00 35 1009.8
20260507232708 14 306 11.3 20.9 0.00 0.00 0.00 33 1009.8
20260507232632 14 42 11.3 20.9 0.00 0.00 0.00 32 1009.9
20260507232507 14 355 11.3 20.9 0.00 0.00 0.00 34 1009.9
20260507232431 14 360 11.3 17.7 0.00 0.00 0.00 34 1009.9
20260507232308 14 340 9.7 24.1 0.00 0.00 0.00 34 1009.9
20260507232215 14 310 11.3 24.1 0.00 0.00 0.00 33 1009.9
20260507232139 14 302 6.4 24.1 0.00 0.00 0.00 33 1009.9
20260507232021 14 345 4.8 24.1 0.00 0.00 0.00 34 1009.9
20260507231926 14 13 4.8 24.1 0.00 0.00 0.00 35 1010.0
20260507231830 14 334 4.8 24.1 0.00 0.00 0.00 35 1010.0
20260507231713 14 296 4.8 24.1 0.00 0.00 0.00 33 1010.0
20260507231617 14 311 9.7 24.1 0.00 0.00 0.00 33 1009.9
20260507231521 14 333 14.5 24.1 0.00 0.00 0.00 33 1010.0
20260507231407 14 306 16.1 24.1 0.00 0.00 0.00 34 1009.9
20260507231310 14 331 14.5 22.5 0.00 0.00 0.00 34 1010.0
20260507231235 14 294 12.9 24.1 0.00 0.00 0.00 33 1009.9
20260507231119 14 323 14.5 24.1 0.00 0.00 0.00 33 1009.9
20260507231043 14 331 12.9 24.1 0.00 0.00 0.00 33 1009.9
20260507230907 14 350 12.9 24.1 0.00 0.00 0.00 34 1009.9
20260507230816 14 321 11.3 24.1 0.00 0.00 0.00 34 1010.1
20260507230719 14 317 8.0 24.1 0.00 0.00 0.00 35 1009.9
20260507230624 14 301 11.3 24.1 0.00 0.00 0.00 36 1010.0
20260507230529 14 294 14.5 24.1 0.00 0.00 0.00 34 1010.0
20260507230405 14 293 16.1 24.1 0.00 0.00 0.00 34 1010.0
20260507230308 14 324 16.1 24.1 0.00 0.00 0.00 36 1010.0
20260507230216 14 306 16.1 24.1 0.00 0.00 0.00 34 1009.9
20260507230121 13 320 16.1 24.1 0.00 0.00 0.00 34 1010.0
20260507230006 14 305 16.1 24.1 0.00 0.00 0.00 35 1010.0
20260507225909 14 272 17.7 24.1 0.00 0.00 0.00 33 1009.9
20260507225814 14 327 17.7 22.5 0.00 0.00 0.00 35 1010.0
20260507225718 14 293 16.1 22.5 0.00 0.00 0.00 35 1009.9
20260507225626 14 290 14.5 20.9 0.00 0.00 0.00 35 1009.9
20260507225528 14 288 14.5 20.9 0.00 0.00 0.00 35 1010.1
20260507225406 14 306 12.9 20.9 0.00 0.00 0.00 34 1010.0
20260507225310 14 304 14.5 20.9 0.00 0.00 0.00 35 1010.0
20260507225235 14 279 16.1 20.9 0.00 0.00 0.00 35 1010.1
20260507225119 14 304 12.9 20.9 0.00 0.00 0.00 32 1010.0
20260507225024 14 296 12.9 20.9 0.00 0.00 0.00 34 1010.1
20260507224930 14 342 14.5 20.9 0.00 0.00 0.00 33 1010.1
20260507224813 14 316 12.9 19.3 0.00 0.00 0.00 32 1010.2
20260507224738 14 346 11.3 19.3 0.00 0.00 0.00 32 1010.1
20260507224620 14 24 11.3 19.3 0.00 0.00 0.00 33 1010.3
20260507224524 14 302 11.3 19.3 0.00 0.00 0.00 32 1010.2
20260507224409 14 360 11.3 20.9 0.00 0.00 0.00 34 1010.2
20260507224312 14 355 9.7 25.7 0.00 0.00 0.00 35 1010.2
20260507224240 14 288 9.7 25.7 0.00 0.00 0.00 37 1010.2
20260507224143 14 323 11.3 25.7 0.00 0.00 0.00 36 1010.3
20260507224026 14 286 12.9 27.4 0.00 0.00 0.00 35 1010.2
20260507223930 13 309 12.9 27.4 0.00 0.00 0.00 33 1010.2
20260507223814 13 355 12.9 32.2 0.00 0.00 0.00 34 1010.2
20260507223737 13 300 16.1 32.2 0.00 0.00 0.00 33 1010.2
20260507223620 13 289 19.3 32.2 0.00 0.00 0.00 35 1010.1
20260507223544 13 311 17.7 32.2 0.00 0.00 0.00 36 1010.2
20260507223430 13 287 17.7 32.2 0.00 0.00 0.00 36 1010.2
20260507223332 13 272 19.3 32.2 0.00 0.00 0.00 34 1010.2
20260507223210 13 292 22.5 32.2 0.00 0.00 0.00 35 1010.3
20260507223114 13 298 24.1 32.2 0.00 0.00 0.00 35 1010.2
20260507223019 13 291 24.1 32.2 0.00 0.00 0.00 34 1010.1
20260507222921 13 298 24.1 32.2 0.00 0.00 0.00 33 1010.1
20260507222810 13 304 25.7 32.2 0.00 0.00 0.00 33 1010.1
20260507222714 13 290 22.5 32.2 0.00 0.00 0.00 34 1010.1
20260507222619 14 287 19.3 29.0 0.00 0.00 0.00 33 1010.2
20260507222524 14 317 19.3 29.0 0.00 0.00 0.00 33 1010.2
20260507222429 14 296 20.9 29.0 0.00 0.00 0.00 32 1010.2
20260507222311 14 301 19.3 27.4 0.00 0.00 0.00 33 1010.2
20260507222236 14 308 14.5 25.7 0.00 0.00 0.00 33 1010.3
20260507222123 14 296 14.5 25.7 0.00 0.00 0.00 33 1010.3
20260507222028 14 322 12.9 25.7 0.00 0.00 0.00 33 1010.4
20260507221911 14 26 14.5 25.7 0.00 0.00 0.00 32 1010.4
20260507221815 14 355 14.5 25.7 0.00 0.00 0.00 34 1010.5
20260507221738 14 295 14.5 25.7 0.00 0.00 0.00 34 1010.4
20260507221621 14 288 16.1 25.7 0.00 0.00 0.00 34 1010.3
20260507221524 14 281 19.3 25.7 0.00 0.00 0.00 32 1010.3
20260507221413 14 275 17.7 25.7 0.00 0.00 0.00 34 1010.4
20260507221337 14 289 11.3 25.7 0.00 0.00 0.00 35 1010.4
20260507221240 14 321 8.0 19.3 0.00 0.00 0.00 34 1010.3
20260507221123 14 334 8.0 19.3 0.00 0.00 0.00 33 1010.4
20260507221027 14 39 6.4 24.1 0.00 0.00 0.00 34 1010.4
20260507220952 14 38 4.8 24.1 0.00 0.00 0.00 34 1010.4
20260507220807 14 75 11.3 24.1 0.00 0.00 0.00 30 1010.4
20260507220731 14 41 11.3 24.1 0.00 0.00 0.00 32 1010.5
20260507220618 14 15 9.7 24.1 0.00 0.00 0.00 32 1010.5
20260507220522 14 74 11.3 24.1 0.00 0.00 0.00 32 1010.5
20260507220407 14 9 14.5 24.1 0.00 0.00 0.00 32 1010.5
20260507220312 14 15 14.5 25.7 0.00 0.00 0.00 31 1010.6
20260507220215 14 360 14.5 32.2 0.00 0.00 0.00 32 1010.6
20260507220120 14 345 11.3 32.2 0.00 0.00 0.00 34 1010.6
20260507220027 14 360 9.7 32.2 0.00 0.00 0.00 37 1010.5
20260507215931 14 310 11.3 32.2 0.00 0.00 0.00 33 1010.5
20260507215807 14 328 17.7 32.2 0.00 0.00 0.00 32 1010.6
20260507215712 15 338 17.7 32.2 0.00 0.00 0.00 31 1010.6
20260507215616 15 324 19.3 32.2 0.00 0.00 0.00 32 1010.7
20260507215520 15 355 17.7 32.2 0.00 0.00 0.00 34 1010.7
20260507215407 15 347 17.7 27.4 0.00 0.00 0.00 33 1010.6
20260507215330 14 309 17.7 27.4 0.00 0.00 0.00 32 1010.6
20260507215254 14 342 17.7 27.4 0.00 0.00 0.00 33 1010.5
20260507215109 14 331 12.9 29.0 0.00 0.00 0.00 34 1010.7
20260507215013 14 13 8.0 29.0 0.00 0.00 0.00 35 1010.6
20260507214936 14 300 11.3 29.0 0.00 0.00 0.00 34 1010.5
20260507214820 14 292 14.5 29.0 0.00 0.00 0.00 33 1010.6
20260507214708 14 308 11.3 29.0 0.00 0.00 0.00 32 1010.5
20260507214613 14 344 11.3 29.0 0.00 0.00 0.00 34 1010.6
20260507214536 14 341 16.1 29.0 0.00 0.00 0.00 34 1010.6
20260507214420 14 328 19.3 29.0 0.00 0.00 0.00 37 1010.6
20260507214325 14 303 20.9 29.0 0.00 0.00 0.00 34 1010.6
20260507214211 14 288 19.3 29.0 0.00 0.00 0.00 34 1010.5
20260507214136 14 329 17.7 27.4 0.00 0.00 0.00 34 1010.6
20260507214025 14 316 16.1 22.5 0.00 0.00 0.00 36 1010.5
20260507213910 14 302 16.1 24.1 0.00 0.00 0.00 33 1010.5
20260507213815 14 312 11.3 24.1 0.00 0.00 0.00 34 1010.5
20260507213721 14 311 9.7 24.1 0.00 0.00 0.00 34 1010.5
20260507213607 14 270 6.4 24.1 0.00 0.00 0.00 34 1010.5
20260507213516 14 295 4.8 24.1 0.00 0.00 0.00 34 1010.6
20260507213421 14 284 8.0 24.1 0.00 0.00 0.00 33 1010.5
20260507213307 14 5 12.9 24.1 0.00 0.00 0.00 33 1010.5
20260507213211 14 19 14.5 24.1 0.00 0.00 0.00 31 1010.6
20260507213112 14 5 12.9 24.1 0.00 0.00 0.00 31 1010.6
20260507213033 14 15 14.5 24.1 0.00 0.00 0.00 31 1010.6
20260507212913 14 13 16.1 24.1 0.00 0.00 0.00 31 1010.6
20260507212818 14 360 16.1 24.1 0.00 0.00 0.00 32 1010.7
20260507212719 14 355 14.5 27.4 0.00 0.00 0.00 34 1010.6
20260507212643 14 350 12.9 27.4 0.00 0.00 0.00 34 1010.7
20260507212507 14 28 11.3 27.4 0.00 0.00 0.00 33 1010.6
20260507212411 14 350 14.5 27.4 0.00 0.00 0.00 34 1010.7
20260507212315 14 349 17.7 30.6 0.00 0.00 0.00 35 1010.8
20260507212222 14 305 17.7 30.6 0.00 0.00 0.00 33 1010.6
20260507212107 14 335 14.5 30.6 0.00 0.00 0.00 34 1010.6
20260507212009 14 328 16.1 30.6 0.00 0.00 0.00 33 1010.5
20260507211912 14 343 16.1 30.6 0.00 0.00 0.00 34 1010.5
20260507211815 14 307 11.3 30.6 0.00 0.00 0.00 34 1010.5
20260507211718 14 321 12.9 30.6 0.00 0.00 0.00 34 1010.5
20260507211605 14 313 11.3 30.6 0.00 0.00 0.00 35 1010.6
20260507211508 14 48 4.8 22.5 0.00 0.00 0.00 34 1010.5
20260507211431 14 284 4.8 22.5 0.00 0.00 0.00 37 1010.6
20260507211312 14 360 6.4 22.5 0.00 0.00 0.00 35 1010.6
20260507211236 13 19 9.7 22.5 0.00 0.00 0.00 35 1010.6
20260507211137 13 5 12.9 22.5 0.00 0.00 0.00 34 1010.6
20260507211021 13 12 12.9 22.5 0.00 0.00 0.00 34 1010.6
20260507210906 13 19 8.0 27.4 0.00 0.00 0.00 37 1010.6
20260507210829 13 293 9.7 27.4 0.00 0.00 0.00 36 1010.7
20260507210753 13 311 11.3 27.4 0.00 0.00 0.00 35 1010.7
20260507210633 13 276 12.9 27.4 0.00 0.00 0.00 33 1010.7
20260507210509 13 319 16.1 27.4 0.00 0.00 0.00 36 1010.7
20260507210411 13 289 12.9 27.4 0.00 0.00 0.00 36 1010.7
20260507210317 13 278 9.7 27.4 0.00 0.00 0.00 36 1010.7
20260507210220 13 302 11.3 27.4 0.00 0.00 0.00 36 1010.7
20260507210107 13 355 14.5 27.4 0.00 0.00 0.00 34 1010.8
20260507210009 13 340 14.5 25.7 0.00 0.00 0.00 36 1010.8
20260507205913 13 294 17.7 27.4 0.00 0.00 0.00 35 1010.8
20260507205818 13 288 16.1 27.4 0.00 0.00 0.00 35 1010.9
20260507205720 13 317 14.5 30.6 0.00 0.00 0.00 35 1010.8
20260507205608 13 312 16.1 30.6 0.00 0.00 0.00 34 1010.8
20260507205511 13 336 14.5 30.6 0.00 0.00 0.00 34 1010.7
20260507205414 13 304 14.5 30.6 0.00 0.00 0.00 38 1010.8
20260507205314 13 323 17.7 30.6 0.00 0.00 0.00 34 1010.7
20260507205217 13 319 20.9 30.6 0.00 0.00 0.00 32 1010.8
20260507205116 13 303 20.9 30.6 0.00 0.00 0.00 33 1010.8
20260507205040 13 324 19.3 30.6 0.00 0.00 0.00 34 1010.8
20260507204942 13 321 20.9 30.6 0.00 0.00 0.00 36 1010.9
20260507204827 13 327 20.9 30.6 0.00 0.00 0.00 37 1010.8
20260507204731 13 290 19.3 30.6 0.00 0.00 0.00 34 1010.7
20260507204607 13 323 22.5 30.6 0.00 0.00 0.00 34 1010.8
20260507204532 13 313 22.5 30.6 0.00 0.00 0.00 34 1010.7
20260507204434 13 320 20.9 30.6 0.00 0.00 0.00 34 1010.9
20260507204317 13 275 16.1 27.4 0.00 0.00 0.00 35 1010.7
20260507204220 13 311 9.7 22.5 0.00 0.00 0.00 34 1010.8
20260507204108 13 211 6.4 22.5 0.00 0.00 0.00 33 1010.9
20260507204011 13 325 9.7 22.5 0.00 0.00 0.00 34 1010.9
20260507203914 13 350 16.1 22.5 0.00 0.00 0.00 34 1010.9
20260507203817 13 299 14.5 22.5 0.00 0.00 0.00 36 1010.9
20260507203741 13 321 8.0 20.9 0.00 0.00 0.00 35 1010.9
20260507203622 13 15 6.4 20.9 0.00 0.00 0.00 35 1010.9
20260507203509 13 355 8.0 22.5 0.00 0.00 0.00 35 1011.0
20260507203433 13 12 9.7 22.5 0.00 0.00 0.00 35 1011.0
20260507203308 13 360 8.0 27.4 0.00 0.00 0.00 35 1011.0
20260507203211 13 360 8.0 27.4 0.00 0.00 0.00 35 1011.0
20260507203114 13 23 9.7 27.4 0.00 0.00 0.00 34 1011.0
20260507203018 13 342 11.3 27.4 0.00 0.00 0.00 36 1011.0
20260507202942 13 355 14.5 29.0 0.00 0.00 0.00 35 1011.1
20260507202843 13 325 16.1 29.0 0.00 0.00 0.00 33 1011.1
20260507202706 13 300 17.7 29.0 0.00 0.00 0.00 35 1011.0
20260507202609 13 317 16.1 29.0 0.00 0.00 0.00 35 1011.0
20260507202532 13 298 16.1 29.0 0.00 0.00 0.00 38 1011.0
20260507202409 13 320 17.7 29.0 0.00 0.00 0.00 35 1011.0
20260507202332 13 286 19.3 29.0 0.00 0.00 0.00 35 1011.0
20260507202208 13 301 17.7 29.0 0.00 0.00 0.00 40 1011.1
20260507202137 13 287 12.9 24.1 0.00 0.00 0.00 36 1011.0
20260507202020 13 343 9.7 24.1 0.00 0.00 0.00 36 1011.1
20260507201922 13 305 6.4 24.1 0.00 0.00 0.00 37 1011.1
20260507201845 13 346 6.4 24.1 0.00 0.00 0.00 34 1011.1
20260507201708 13 271 9.7 24.1 0.00 0.00 0.00 35 1011.1
20260507201612 13 279 9.7 24.1 0.00 0.00 0.00 35 1011.1
20260507201514 13 254 11.3 24.1 0.00 0.00 0.00 37 1011.1
20260507201443 13 233 17.7 24.1 0.00 0.00 0.00 33 1011.2
20260507201322 13 265 19.3 24.1 0.00 0.00 0.00 36 1011.2
20260507201225 13 279 16.1 24.1 0.00 0.00 0.00 35 1011.1
20260507201128 13 277 14.5 20.9 0.00 0.00 0.00 34 1011.2
20260507201052 13 271 12.9 20.9 0.00 0.00 0.00 36 1011.2
20260507200907 13 306 8.0 19.3 0.00 0.00 0.00 34 1011.3
20260507200810 13 282 6.4 19.3 0.00 0.00 0.00 39 1011.3
20260507200717 13 360 8.0 19.3 0.00 0.00 0.00 37 1011.3
20260507200619 13 316 11.3 19.3 0.00 0.00 0.00 36 1011.3
20260507200543 13 5 12.9 19.3 0.00 0.00 0.00 34 1011.3
20260507200425 13 10 9.7 19.3 0.00 0.00 0.00 35 1011.4
20260507200330 13 11 9.7 19.3 0.00 0.00 0.00 34 1011.3
20260507200253 13 49 9.7 19.3 0.00 0.00 0.00 35 1011.4
20260507200109 13 47 6.4 16.1 0.00 0.00 0.00 39 1011.4
20260507200017 13 355 6.4 16.1 0.00 0.00 0.00 33 1011.4
20260507195917 13 325 11.3 16.1 0.00 0.00 0.00 34 1011.3
20260507195842 13 321 12.9 16.1 0.00 0.00 0.00 35 1011.4
20260507195724 13 313 9.7 16.1 0.00 0.00 0.00 36 1011.4
20260507195608 13 5 6.4 19.3 0.00 0.00 0.00 35 1011.4
20260507195512 13 17 8.0 22.5 0.00 0.00 0.00 38 1011.4
20260507195420 13 346 8.0 22.5 0.00 0.00 0.00 37 1011.4
20260507195324 13 360 11.3 22.5 0.00 0.00 0.00 37 1011.5
20260507195229 13 288 11.3 22.5 0.00 0.00 0.00 37 1011.4
20260507195153 13 262 12.9 22.5 0.00 0.00 0.00 35 1011.4
20260507195009 13 295 9.7 22.5 0.00 0.00 0.00 37 1011.5
20260507194913 13 282 11.3 22.5 0.00 0.00 0.00 38 1011.4
20260507194817 13 332 14.5 22.5 0.00 0.00 0.00 36 1011.5
20260507194724 13 355 16.1 22.5 0.00 0.00 0.00 37 1011.7
20260507194608 13 300 12.9 22.5 0.00 0.00 0.00 35 1011.4
20260507194512 13 326 14.5 22.5 0.00 0.00 0.00 35 1011.6
20260507194437 13 326 16.1 22.5 0.00 0.00 0.00 35 1011.6
20260507194319 13 310 14.5 22.5 0.00 0.00 0.00 37 1011.5
20260507194222 12 305 11.3 22.5 0.00 0.00 0.00 39 1011.6
20260507194111 12 311 9.7 19.3 0.00 0.00 0.00 36 1011.5
20260507194034 12 350 9.7 19.3 0.00 0.00 0.00 37 1011.6
20260507193915 12 342 9.7 19.3 0.00 0.00 0.00 37 1011.6
20260507193819 12 5 6.4 19.3 0.00 0.00 0.00 35 1011.6
20260507193720 12 284 8.0 19.3 0.00 0.00 0.00 35 1011.4
20260507193622 12 79 11.3 19.3 0.00 0.00 0.00 39 1011.5
20260507193509 12 23 9.7 19.3 0.00 0.00 0.00 39 1011.7
20260507193413 12 13 6.4 19.3 0.00 0.00 0.00 37 1011.5
20260507193317 12 222 3.2 14.5 0.00 0.00 0.00 37 1011.6
20260507193221 12 244 1.6 14.5 0.00 0.00 0.00 39 1011.5
20260507193145 12 264 1.6 14.5 0.00 0.00 0.00 36 1011.5
20260507193046 12 264 3.2 16.1 0.00 0.00 0.00 37 1011.5
20260507192926 11 268 8.0 22.5 0.00 0.00 0.00 36 1011.6
20260507192811 11 292 11.3 22.5 0.00 0.00 0.00 36 1011.6
20260507192712 11 303 8.0 22.5 0.00 0.00 0.00 36 1011.6
20260507192634 11 286 6.4 24.1 0.00 0.00 0.00 36 1011.7
20260507192535 11 306 8.0 27.4 0.00 0.00 0.00 35 1011.6
20260507192415 11 297 11.3 27.4 0.00 0.00 0.00 36 1011.7
20260507192314 12 298 12.9 27.4 0.00 0.00 0.00 35 1011.8
20260507192238 12 315 16.1 27.4 0.00 0.00 0.00 35 1011.7
20260507192118 12 310 16.1 27.4 0.00 0.00 0.00 36 1011.7
20260507192025 12 313 12.9 27.4 0.00 0.00 0.00 37 1011.7
20260507191929 12 306 14.5 27.4 0.00 0.00 0.00 37 1011.7
20260507191813 12 311 14.5 27.4 0.00 0.00 0.00 36 1011.7
20260507191717 12 303 14.5 27.4 0.00 0.00 0.00 39 1011.7
20260507191621 12 289 17.7 27.4 0.00 0.00 0.00 37 1011.7
20260507191525 12 302 17.7 27.4 0.00 0.00 0.00 40 1011.6
20260507191414 12 292 9.7 20.9 0.00 0.00 0.00 38 1011.7
20260507191318 12 267 8.0 16.1 0.00 0.00 0.00 37 1011.7
20260507191222 12 257 8.0 16.1 0.00 0.00 0.00 40 1011.6
20260507191106 12 300 4.8 17.7 0.00 0.00 0.00 43 1011.7
20260507191010 12 327 9.7 19.3 0.00 0.00 0.00 39 1011.7
20260507190935 12 340 12.9 20.9 0.00 0.00 0.00 38 1011.8
20260507190817 12 302 14.5 22.5 0.00 0.00 0.00 40 1011.8
20260507190705 12 295 9.7 22.5 0.00 0.00 0.00 36 1011.7
20260507190630 12 286 8.0 22.5 0.00 0.00 0.00 36 1011.7
20260507190507 12 333 9.7 22.5 0.00 0.00 0.00 36 1011.7
20260507190413 12 33 11.3 22.5 0.00 0.00 0.00 35 1011.8
20260507190317 12 9 12.9 22.5 0.00 0.00 0.00 37 1011.8
20260507190221 12 17 14.5 22.5 0.00 0.00 0.00 37 1011.7
20260507190110 12 331 14.5 24.1 0.00 0.00 0.00 37 1011.7
20260507190035 12 355 14.5 24.1 0.00 0.00 0.00 37 1011.7
20260507185957 12 342 8.0 24.1 0.00 0.00 0.00 37 1011.7
20260507185731 12 45 8.0 24.1 0.00 0.00 0.00 36 1011.7
20260507185635 12 360 9.7 24.1 0.00 0.00 0.00 37 1011.7
20260507185519 12 284 11.3 24.1 0.00 0.00 0.00 37 1011.7
20260507185422 12 267 14.5 24.1 0.00 0.00 0.00 37 1011.7
20260507185310 12 290 14.5 24.1 0.00 0.00 0.00 37 1011.7
20260507185213 12 24 9.7 20.9 0.00 0.00 0.00 37 1011.7
20260507185117 12 331 6.4 20.9 0.00 0.00 0.00 38 1011.6
20260507185022 12 9 4.8 25.7 0.00 0.00 0.00 37 1011.7
20260507184906 12 336 6.4 25.7 0.00 0.00 0.00 36 1011.8
20260507184810 12 314 9.7 25.7 0.00 0.00 0.00 37 1011.7
20260507184714 12 326 12.9 25.7 0.00 0.00 0.00 40 1011.7
20260507184622 12 288 12.9 25.7 0.00 0.00 0.00 42 1011.7
20260507184506 12 301 11.3 25.7 0.00 0.00 0.00 36 1011.7
20260507184411 12 335 14.5 25.7 0.00 0.00 0.00 37 1011.8
20260507184335 12 12 16.1 25.7 0.00 0.00 0.00 37 1011.8
20260507184218 12 336 16.1 25.7 0.00 0.00 0.00 39 1011.8
20260507184124 12 350 16.1 25.7 0.00 0.00 0.00 38 1012.0
20260507184012 12 321 14.5 27.4 0.00 0.00 0.00 39 1011.8
20260507183916 12 349 16.1 30.6 0.00 0.00 0.00 36 1011.9
20260507183818 12 323 14.5 30.6 0.00 0.00 0.00 39 1011.8
20260507183723 12 300 12.9 30.6 0.00 0.00 0.00 37 1011.9
20260507183646 12 11 14.5 30.6 0.00 0.00 0.00 38 1011.8
20260507183510 12 319 8.0 30.6 0.00 0.00 0.00 39 1011.7
20260507183418 12 32 6.4 30.6 0.00 0.00 0.00 43 1011.8
20260507183322 12 342 14.5 30.6 0.00 0.00 0.00 40 1011.8
20260507183207 12 292 22.5 30.6 0.00 0.00 0.00 39 1011.9
20260507183131 12 290 16.1 30.6 0.00 0.00 0.00 38 1011.8
20260507183014 12 296 8.0 20.9 0.00 0.00 0.00 37 1011.8
20260507182939 12 257 4.8 20.9 0.00 0.00 0.00 39 1011.9
20260507182822 12 40 4.8 20.9 0.00 0.00 0.00 43 1011.8
20260507182710 12 277 9.7 20.9 0.00 0.00 0.00 41 1011.9
20260507182615 12 270 11.3 20.9 0.00 0.00 0.00 39 1011.9
20260507182519 12 267 8.0 20.9 0.00 0.00 0.00 35 1011.9
20260507182421 12 298 8.0 20.9 0.00 0.00 0.00 37 1012.0
20260507182324 12 60 11.3 20.9 0.00 0.00 0.00 34 1011.9
20260507182228 12 17 12.9 20.9 0.00 0.00 0.00 38 1012.0
20260507182115 12 351 9.7 20.9 0.00 0.00 0.00 40 1012.0
20260507182018 12 355 6.4 20.9 0.00 0.00 0.00 41 1012.0
20260507181922 12 11 6.4 20.9 0.00 0.00 0.00 39 1012.0
20260507181806 12 37 12.9 20.9 0.00 0.00 0.00 39 1012.0
20260507181710 11 10 14.5 20.9 0.00 0.00 0.00 38 1012.1
20260507181614 11 349 12.9 20.9 0.00 0.00 0.00 39 1012.0
20260507181522 11 20 9.7 16.1 0.00 0.00 0.00 38 1012.1
20260507181406 11 342 8.0 16.1 0.00 0.00 0.00 41 1012.0
20260507181330 11 13 8.0 16.1 0.00 0.00 0.00 44 1012.0
20260507181207 11 337 8.0 16.1 0.00 0.00 0.00 41 1012.1
20260507181111 11 287 11.3 16.1 0.00 0.00 0.00 40 1012.1
20260507181018 11 307 9.7 16.1 0.00 0.00 0.00 41 1012.0
20260507180907 11 304 4.8 14.5 0.00 0.00 0.00 39 1012.0
20260507180831 11 5 8.0 17.7 0.00 0.00 0.00 39 1012.0
20260507180713 11 280 8.0 17.7 0.00 0.00 0.00 40 1012.1
20260507180617 11 301 6.4 17.7 0.00 0.00 0.00 41 1012.0
20260507180522 11 347 8.0 17.7 0.00 0.00 0.00 41 1012.0
20260507180407 11 355 9.7 17.7 0.00 0.00 0.00 42 1012.1
20260507180330 11 63 8.0 17.7 0.00 0.00 0.00 41 1012.1
20260507180217 11 63 8.0 24.1 0.00 0.00 0.00 41 1012.2
20260507180119 11 32 9.7 24.1 0.00 0.00 0.00 40 1012.1
20260507180020 11 59 9.7 24.1 0.00 0.00 0.00 38 1012.3
20260507175921 11 61 9.7 24.1 0.00 0.00 0.00 38 1012.3
20260507175822 11 27 9.7 24.1 0.00 0.00 0.00 39 1012.3
20260507175724 11 39 9.7 24.1 0.00 0.00 0.00 38 1012.3
20260507175630 11 57 12.9 24.1 0.00 0.00 0.00 38 1012.3
20260507175505 11 11 14.5 24.1 0.00 0.00 0.00 39 1012.4
20260507175410 11 14 12.9 24.1 0.00 0.00 0.00 40 1012.3
20260507175314 11 12 11.3 20.9 0.00 0.00 0.00 38 1012.4
20260507175218 11 345 14.5 20.9 0.00 0.00 0.00 40 1012.3
20260507175122 11 337 11.3 20.9 0.00 0.00 0.00 38 1012.4
20260507175011 11 340 4.8 20.9 0.00 0.00 0.00 39 1012.3
20260507174913 11 5 9.7 20.9 0.00 0.00 0.00 36 1012.3
20260507174815 11 360 14.5 20.9 0.00 0.00 0.00 38 1012.3
20260507174721 11 336 12.9 20.9 0.00 0.00 0.00 39 1012.5
20260507174626 11 13 9.7 19.3 0.00 0.00 0.00 40 1012.4
20260507174550 11 355 9.7 17.7 0.00 0.00 0.00 37 1012.4
20260507174415 11 25 8.0 17.7 0.00 0.00 0.00 40 1012.4
20260507174339 11 343 6.4 16.1 0.00 0.00 0.00 39 1012.4
20260507174224 11 355 6.4 16.1 0.00 0.00 0.00 38 1012.4
20260507174109 11 251 8.0 17.7 0.00 0.00 0.00 37 1012.3
20260507174030 11 276 8.0 17.7 0.00 0.00 0.00 40 1012.3
20260507173907 11 343 8.0 17.7 0.00 0.00 0.00 42 1012.4
20260507173810 11 355 6.4 17.7 0.00 0.00 0.00 39 1012.4
20260507173718 11 9 3.2 17.7 0.00 0.00 0.00 40 1012.4
20260507173620 11 278 6.4 17.7 0.00 0.00 0.00 44 1012.4
20260507173524 11 321 8.0 17.7 0.00 0.00 0.00 42 1012.4
20260507173428 11 5 9.7 17.7 0.00 0.00 0.00 42 1012.5
20260507173309 11 306 8.0 17.7 0.00 0.00 0.00 39 1012.5
20260507173213 11 57 9.7 16.1 0.00 0.00 0.00 39 1012.5
20260507173137 11 18 9.7 17.7 0.00 0.00 0.00 41 1012.5
20260507173023 11 11 8.0 19.3 0.00 0.00 0.00 43 1012.5
20260507172908 11 308 4.8 19.3 0.00 0.00 0.00 43 1012.5
20260507172811 11 17 4.8 19.3 0.00 0.00 0.00 42 1012.4
20260507172715 11 15 6.4 19.3 0.00 0.00 0.00 39 1012.5
20260507172637 11 38 8.0 19.3 0.00 0.00 0.00 38 1012.5
20260507172517 11 46 8.0 19.3 0.00 0.00 0.00 38 1012.6
20260507172417 11 36 9.7 19.3 0.00 0.00 0.00 39 1012.6
20260507172323 11 39 11.3 19.3 0.00 0.00 0.00 41 1012.6
20260507172207 10 344 12.9 19.3 0.00 0.00 0.00 41 1012.6
20260507172131 10 360 12.9 19.3 0.00 0.00 0.00 41 1012.6
20260507172007 10 360 9.7 19.3 0.00 0.00 0.00 44 1012.6
20260507171911 10 341 8.0 16.1 0.00 0.00 0.00 42 1012.5
20260507171816 10 21 8.0 16.1 0.00 0.00 0.00 42 1012.5
20260507171724 10 336 9.7 17.7 0.00 0.00 0.00 43 1012.5
20260507171648 10 54 9.7 17.7 0.00 0.00 0.00 40 1012.6
20260507171507 10 32 9.7 17.7 0.00 0.00 0.00 43 1012.6
20260507171432 10 69 6.4 17.7 0.00 0.00 0.00 41 1012.6
20260507171311 10 65 4.8 17.7 0.00 0.00 0.00 39 1012.5
20260507171235 10 121 8.0 19.3 0.00 0.00 0.00 38 1012.5
20260507171116 10 110 9.7 19.3 0.00 0.00 0.00 40 1012.5
20260507171022 10 88 11.3 19.3 0.00 0.00 0.00 42 1012.6
20260507170905 10 65 12.9 19.3 0.00 0.00 0.00 41 1012.7
20260507170829 10 71 11.3 19.3 0.00 0.00 0.00 39 1012.6
20260507170711 10 87 9.7 19.3 0.00 0.00 0.00 39 1012.6
20260507170612 11 77 8.0 19.3 0.00 0.00 0.00 39 1012.7
20260507170533 11 61 9.7 19.3 0.00 0.00 0.00 39 1012.7
20260507170413 11 58 9.7 19.3 0.00 0.00 0.00 39 1012.8
20260507170317 11 71 8.0 19.3 0.00 0.00 0.00 41 1012.7
20260507170222 11 36 9.7 19.3 0.00 0.00 0.00 40 1012.7
20260507170126 11 320 14.5 19.3 0.00 0.00 0.00 42 1012.7
20260507170008 11 22 11.3 19.3 0.00 0.00 0.00 43 1012.8
20260507165932 11 10 9.7 19.3 0.00 0.00 0.00 42 1012.7
20260507165807 11 335 8.0 14.5 0.00 0.00 0.00 43 1012.7
20260507165711 11 42 8.0 14.5 0.00 0.00 0.00 44 1012.8
20260507165620 11 9 6.4 14.5 0.00 0.00 0.00 43 1012.8
20260507165541 10 290 6.4 9.7 0.00 0.00 0.00 43 1012.8
20260507165424 10 16 4.8 8.0 0.00 0.00 0.00 44 1012.9
20260507165347 10 321 4.8 8.0 0.00 0.00 0.00 45 1012.7
20260507165251 10 5 4.8 11.3 0.00 0.00 0.00 43 1012.8
20260507165107 10 166 1.6 12.9 0.00 0.00 0.00 46 1012.8
20260507165011 10 166 1.6 12.9 0.00 0.00 0.00 45 1012.8
20260507164936 10 166 1.6 12.9 0.00 0.00 0.00 44 1012.8
20260507164822 10 166 1.6 12.9 0.00 0.00 0.00 45 1012.8
20260507164726 10 166 1.6 17.7 0.00 0.00 0.00 41 1012.8
20260507164627 10 142 4.8 17.7 0.00 0.00 0.00 40 1012.7
20260507164509 10 142 8.0 19.3 0.00 0.00 0.00 41 1012.8
20260507164433 10 121 6.4 19.3 0.00 0.00 0.00 41 1012.8
20260507164316 10 96 6.4 19.3 0.00 0.00 0.00 42 1013.0
20260507164240 10 67 8.0 19.3 0.00 0.00 0.00 44 1013.0
20260507164107 10 46 8.0 19.3 0.00 0.00 0.00 42 1013.1
20260507164010 10 355 8.0 19.3 0.00 0.00 0.00 43 1013.0
20260507163934 10 344 12.9 19.3 0.00 0.00 0.00 41 1013.0
20260507163817 10 342 14.5 19.3 0.00 0.00 0.00 40 1013.1
20260507163737 10 360 11.3 19.3 0.00 0.00 0.00 41 1013.1
20260507163621 10 360 4.8 17.7 0.00 0.00 0.00 43 1013.1
20260507163508 10 24 4.8 17.7 0.00 0.00 0.00 45 1013.0
20260507163412 10 14 8.0 19.3 0.00 0.00 0.00 41 1013.1
20260507163313 10 355 9.7 19.3 0.00 0.00 0.00 41 1013.1
20260507163215 10 45 12.9 19.3 0.00 0.00 0.00 41 1013.1
20260507163116 10 360 12.9 19.3 0.00 0.00 0.00 40 1013.1
20260507163017 10 360 9.7 19.3 0.00 0.00 0.00 41 1013.1
20260507162938 10 206 6.4 19.3 0.00 0.00 0.00 39 1013.1
20260507162824 10 12 8.0 19.3 0.00 0.00 0.00 40 1013.0
20260507162723 10 26 11.3 19.3 0.00 0.00 0.00 43 1013.3
20260507162627 10 335 11.3 19.3 0.00 0.00 0.00 41 1013.2
20260507162508 10 338 11.3 19.3 0.00 0.00 0.00 42 1013.2
20260507162413 10 332 11.3 19.3 0.00 0.00 0.00 44 1013.2
20260507162337 10 294 8.0 17.7 0.00 0.00 0.00 46 1013.2
20260507162220 10 355 9.7 14.5 0.00 0.00 0.00 44 1013.2
20260507162127 10 63 9.7 14.5 0.00 0.00 0.00 43 1013.2
20260507162011 10 51 6.4 14.5 0.00 0.00 0.00 45 1013.2
20260507161914 10 69 4.8 12.9 0.00 0.00 0.00 43 1013.2
20260507161839 10 25 8.0 12.9 0.00 0.00 0.00 42 1013.1
20260507161719 10 78 9.7 16.1 0.00 0.00 0.00 41 1013.2
20260507161642 10 79 6.4 17.7 0.00 0.00 0.00 43 1013.2
20260507161545 10 92 4.8 17.7 0.00 0.00 0.00 41 1013.2
20260507161411 10 64 4.8 17.7 0.00 0.00 0.00 44 1013.2
20260507161335 10 110 4.8 17.7 0.00 0.00 0.00 45 1013.2
20260507161239 10 71 4.8 17.7 0.00 0.00 0.00 45 1013.3
20260507161124 10 44 6.4 17.7 0.00 0.00 0.00 44 1013.2
20260507161029 10 30 9.7 17.7 0.00 0.00 0.00 40 1013.3
20260507160931 10 70 8.0 17.7 0.00 0.00 0.00 43 1013.2
20260507160808 10 69 6.4 16.1 0.00 0.00 0.00 42 1013.2
20260507160709 10 60 4.8 16.1 0.00 0.00 0.00 45 1013.2
20260507160617 10 76 4.8 16.1 0.00 0.00 0.00 43 1013.3
20260507160521 10 277 8.0 17.7 0.00 0.00 0.00 42 1013.2
20260507160426 10 30 9.7 17.7 0.00 0.00 0.00 48 1013.3
20260507160328 10 338 9.7 17.7 0.00 0.00 0.00 46 1013.2
20260507160211 10 325 11.3 20.9 0.00 0.00 0.00 45 1013.2
20260507160114 9 297 12.9 20.9 0.00 0.00 0.00 45 1013.2
20260507160022 9 280 11.3 20.9 0.00 0.00 0.00 44 1013.2
20260507155946 9 355 11.3 20.9 0.00 0.00 0.00 46 1013.1
20260507155828 9 304 9.7 20.9 0.00 0.00 0.00 43 1013.3
20260507155752 9 338 12.9 20.9 0.00 0.00 0.00 45 1013.3
20260507155608 9 331 12.9 20.9 0.00 0.00 0.00 45 1013.3
20260507155512 9 321 12.9 20.9 0.00 0.00 0.00 49 1013.2
20260507155416 9 305 11.3 20.9 0.00 0.00 0.00 46 1013.2
20260507155324 9 287 9.7 17.7 0.00 0.00 0.00 45 1013.2
20260507155207 9 298 8.0 16.1 0.00 0.00 0.00 45 1013.2
20260507155110 9 311 4.8 12.9 0.00 0.00 0.00 47 1013.2
20260507155014 9 329 4.8 14.5 0.00 0.00 0.00 49 1013.3
20260507154917 9 86 3.2 14.5 0.00 0.00 0.00 46 1013.3
20260507154821 9 57 4.8 14.5 0.00 0.00 0.00 46 1013.2
20260507154729 9 57 6.4 14.5 0.00 0.00 0.00 46 1013.3
20260507154606 9 65 8.0 14.5 0.00 0.00 0.00 45 1013.3
20260507154510 9 71 8.0 14.5 0.00 0.00 0.00 47 1013.3
20260507154433 9 69 6.4 14.5 0.00 0.00 0.00 48 1013.3
20260507154316 9 47 8.0 14.5 0.00 0.00 0.00 48 1013.2
20260507154239 9 360 6.4 14.5 0.00 0.00 0.00 49 1013.3
20260507154123 9 26 4.8 8.0 0.00 0.00 0.00 48 1013.3
20260507154011 8 325 4.8 8.0 0.00 0.00 0.00 49 1013.2
20260507153914 8 319 6.4 8.0 0.00 0.00 0.00 49 1013.3
20260507153818 8 5 6.4 8.0 0.00 0.00 0.00 48 1013.3
20260507153721 8 338 4.8 8.0 0.00 0.00 0.00 49 1013.3
20260507153605 8 327 3.2 8.0 0.00 0.00 0.00 48 1013.3
20260507153509 8 290 3.2 14.5 0.00 0.00 0.00 47 1013.3
20260507153417 8 338 4.8 14.5 0.00 0.00 0.00 48 1013.3
20260507153321 8 336 4.8 14.5 0.00 0.00 0.00 48 1013.3
20260507153225 8 344 4.8 14.5 0.00 0.00 0.00 49 1013.3
20260507153128 8 246 4.8 14.5 0.00 0.00 0.00 48 1013.3
20260507153012 8 247 3.2 16.1 0.00 0.00 0.00 51 1013.3
20260507152933 8 70 4.8 16.1 0.00 0.00 0.00 48 1013.3
20260507152817 8 70 6.4 19.3 0.00 0.00 0.00 48 1013.3
20260507152744 8 30 8.0 20.9 0.00 0.00 0.00 49 1013.4
20260507152608 8 331 6.4 20.9 0.00 0.00 0.00 50 1013.3
20260507152532 8 300 4.8 20.9 0.00 0.00 0.00 48 1013.4
20260507152414 8 279 8.0 20.9 0.00 0.00 0.00 47 1013.3
20260507152318 8 277 9.7 20.9 0.00 0.00 0.00 49 1013.3
20260507152241 8 275 9.7 20.9 0.00 0.00 0.00 50 1013.4
20260507152144 8 32 11.3 20.9 0.00 0.00 0.00 47 1013.4
20260507152010 8 19 9.7 20.9 0.00 0.00 0.00 48 1013.4
20260507151914 8 5 8.0 20.9 0.00 0.00 0.00 50 1013.4
20260507151818 8 30 9.7 17.7 0.00 0.00 0.00 49 1013.4
20260507151723 8 338 8.0 20.9 0.00 0.00 0.00 50 1013.3
20260507151608 8 19 6.4 20.9 0.00 0.00 0.00 49 1013.3
20260507151511 8 322 4.8 20.9 0.00 0.00 0.00 50 1013.3
20260507151434 8 289 6.4 20.9 0.00 0.00 0.00 49 1013.4
20260507151321 8 28 6.4 20.9 0.00 0.00 0.00 47 1013.4
20260507151206 8 338 4.8 20.9 0.00 0.00 0.00 51 1013.4
20260507151109 8 303 6.4 20.9 0.00 0.00 0.00 51 1013.4
20260507151014 8 325 11.3 20.9 0.00 0.00 0.00 49 1013.4
20260507150918 8 290 12.9 20.9 0.00 0.00 0.00 51 1013.4
20260507150841 8 294 6.4 17.7 0.00 0.00 0.00 50 1013.4
20260507150728 8 329 3.2 12.9 0.00 0.00 0.00 49 1013.4
20260507150630 8 288 1.6 12.9 0.00 0.00 0.00 49 1013.4
20260507150506 8 288 4.8 14.5 0.00 0.00 0.00 51 1013.4
20260507150410 8 292 8.0 14.5 0.00 0.00 0.00 51 1013.4
20260507150333 8 298 8.0 14.5 0.00 0.00 0.00 50 1013.5
20260507150236 8 325 4.8 14.5 0.00 0.00 0.00 51 1013.5
20260507150118 8 342 4.8 14.5 0.00 0.00 0.00 51 1013.4
20260507150006 8 285 8.0 16.1 0.00 0.00 0.00 49 1013.4
20260507145929 8 292 11.3 16.1 0.00 0.00 0.00 50 1013.4
20260507145812 8 298 11.3 16.1 0.00 0.00 0.00 51 1013.3
20260507145736 8 273 9.7 16.1 0.00 0.00 0.00 50 1013.4
20260507145620 8 313 8.0 16.1 0.00 0.00 0.00 52 1013.4
20260507145544 8 339 8.0 16.1 0.00 0.00 0.00 52 1013.4
20260507145407 8 9 11.3 16.1 0.00 0.00 0.00 50 1013.4
20260507145309 8 344 9.7 16.1 0.00 0.00 0.00 50 1013.4
20260507145217 8 294 8.0 16.1 0.00 0.00 0.00 50 1013.4
20260507145121 8 292 8.0 12.9 0.00 0.00 0.00 51 1013.5
20260507145024 8 360 8.0 12.9 0.00 0.00 0.00 52 1013.5
20260507144928 8 5 6.4 12.9 0.00 0.00 0.00 53 1013.5
20260507144805 8 44 3.2 12.9 0.00 0.00 0.00 53 1013.5
20260507144709 7 44 3.2 12.9 0.00 0.00 0.00 54 1013.5
20260507144618 7 71 3.2 12.9 0.00 0.00 0.00 54 1013.5
20260507144523 7 72 3.2 12.9 0.00 0.00 0.00 51 1013.5
20260507144407 7 70 3.2 12.9 0.00 0.00 0.00 53 1013.4
20260507144310 7 44 4.8 12.9 0.00 0.00 0.00 54 1013.5
20260507144214 7 40 6.4 12.9 0.00 0.00 0.00 51 1013.5
20260507144118 7 38 8.0 12.9 0.00 0.00 0.00 51 1013.6
20260507144005 7 55 6.4 12.9 0.00 0.00 0.00 51 1013.5
20260507143909 7 30 6.4 12.9 0.00 0.00 0.00 54 1013.5
20260507143831 7 355 4.8 9.7 0.00 0.00 0.00 54 1013.6
20260507143714 7 16 3.2 11.3 0.00 0.00 0.00 53 1013.5
20260507143618 7 20 3.2 9.7 0.00 0.00 0.00 52 1013.4
20260507143521 7 17 4.8 9.7 0.00 0.00 0.00 52 1013.5
20260507143429 7 5 6.4 9.7 0.00 0.00 0.00 54 1013.4
20260507143306 7 360 4.8 9.7 0.00 0.00 0.00 54 1013.5
20260507143209 7 336 3.2 8.0 0.00 0.00 0.00 54 1013.4
20260507143113 7 46 4.8 11.3 0.00 0.00 0.00 53 1013.4
20260507143038 7 26 6.4 11.3 0.00 0.00 0.00 53 1013.4
20260507142919 7 35 4.8 11.3 0.00 0.00 0.00 56 1013.5
20260507142808 7 360 4.8 11.3 0.00 0.00 0.00 55 1013.5
20260507142732 7 290 6.4 11.3 0.00 0.00 0.00 55 1013.4
20260507142615 7 264 4.8 11.3 0.00 0.00 0.00 57 1013.5
20260507142539 7 276 4.8 11.3 0.00 0.00 0.00 58 1013.4
20260507142422 7 273 6.4 11.3 0.00 0.00 0.00 57 1013.5
20260507142326 7 257 6.4 11.3 0.00 0.00 0.00 56 1013.5
20260507142209 7 241 4.8 9.7 0.00 0.00 0.00 55 1013.5
20260507142133 7 276 4.8 9.7 0.00 0.00 0.00 56 1013.5
20260507142020 7 277 6.4 9.7 0.00 0.00 0.00 56 1013.5
20260507141924 7 292 4.8 9.7 0.00 0.00 0.00 56 1013.5
20260507141806 7 295 1.6 9.7 0.00 0.00 0.00 56 1013.5
20260507141709 7 342 1.6 9.7 0.00 0.00 0.00 55 1013.5
20260507141614 7 341 3.2 9.7 0.00 0.00 0.00 56 1013.5
20260507141518 7 340 4.8 9.7 0.00 0.00 0.00 55 1013.5
20260507141406 7 327 4.8 9.7 0.00 0.00 0.00 55 1013.5
20260507141310 7 321 6.4 8.0 0.00 0.00 0.00 57 1013.5
20260507141213 7 321 6.4 8.0 0.00 0.00 0.00 57 1013.5
20260507141137 7 303 3.2 8.0 0.00 0.00 0.00 58 1013.5
20260507141019 7 236 1.6 8.0 0.00 0.00 0.00 58 1013.6
20260507140922 7 238 3.2 8.0 0.00 0.00 0.00 59 1013.6
20260507140826 6 219 3.2 12.9 0.00 0.00 0.00 59 1013.6
20260507140729 6 217 3.2 12.9 0.00 0.00 0.00 58 1013.6
20260507140616 6 355 4.8 12.9 0.00 0.00 0.00 58 1013.7
20260507140540 6 345 4.8 12.9 0.00 0.00 0.00 59 1013.7
20260507140442 6 336 4.8 12.9 0.00 0.00 0.00 61 1013.8
20260507140305 6 287 3.2 12.9 0.00 0.00 0.00 58 1013.8
20260507140210 6 288 4.8 12.9 0.00 0.00 0.00 59 1013.7
20260507140114 6 281 6.4 12.9 0.00 0.00 0.00 58 1013.7
20260507140017 6 301 6.4 12.9 0.00 0.00 0.00 59 1013.7
20260507135925 6 298 6.4 12.9 0.00 0.00 0.00 59 1013.7
20260507135848 6 289 6.4 12.9 0.00 0.00 0.00 59 1013.7
20260507135752 6 302 6.4 12.9 0.00 0.00 0.00 60 1013.8
20260507135605 6 297 8.0 12.9 0.00 0.00 0.00 60 1013.7
20260507135508 6 297 8.0 12.9 0.00 0.00 0.00 61 1013.7
20260507135411 6 264 9.7 12.9 0.00 0.00 0.00 60 1013.7
20260507135334 6 292 9.7 12.9 0.00 0.00 0.00 61 1013.7
20260507135236 6 273 8.0 9.7 0.00 0.00 0.00 62 1013.7
20260507135121 6 281 6.4 9.7 0.00 0.00 0.00 62 1013.7
20260507135005 6 282 6.4 11.3 0.00 0.00 0.00 61 1013.8
20260507134908 6 308 6.4 11.3 0.00 0.00 0.00 61 1013.8
20260507134811 6 290 4.8 11.3 0.00 0.00 0.00 62 1013.8
20260507134714 6 327 4.8 9.7 0.00 0.00 0.00 63 1013.8
20260507134617 6 291 6.4 9.7 0.00 0.00 0.00 62 1013.8
20260507134524 6 313 4.8 11.3 0.00 0.00 0.00 63 1013.8
20260507134426 6 350 3.2 9.7 0.00 0.00 0.00 63 1013.8
20260507134310 6 304 4.8 9.7 0.00 0.00 0.00 64 1013.7
20260507134213 6 325 4.8 9.7 0.00 0.00 0.00 65 1013.8
20260507134117 6 300 4.8 9.7 0.00 0.00 0.00 65 1013.8
20260507134022 6 279 6.4 9.7 0.00 0.00 0.00 65 1013.8
20260507133944 6 293 3.2 14.5 0.00 0.00 0.00 65 1013.8
20260507133851 5 296 3.2 14.5 0.00 0.00 0.00 66 1013.8
20260507133706 5 345 4.8 14.5 0.00 0.00 0.00 66 1013.8
20260507133609 5 344 4.8 14.5 0.00 0.00 0.00 66 1013.8
20260507133513 5 306 4.8 14.5 0.00 0.00 0.00 67 1013.8
20260507133416 5 318 6.4 14.5 0.00 0.00 0.00 67 1013.8
20260507133320 5 298 6.4 14.5 0.00 0.00 0.00 67 1013.8
20260507133208 5 283 9.7 14.5 0.00 0.00 0.00 67 1013.8
20260507133113 5 302 11.3 14.5 0.00 0.00 0.00 68 1013.8
20260507133037 5 294 9.7 12.9 0.00 0.00 0.00 69 1013.8
20260507132921 5 290 6.4 12.9 0.00 0.00 0.00 70 1013.8
20260507132805 5 295 4.8 12.9 0.00 0.00 0.00 69 1013.9
20260507132710 5 304 4.8 12.9 0.00 0.00 0.00 70 1013.8
20260507132619 5 303 6.4 12.9 0.00 0.00 0.00 71 1013.8
20260507132523 5 325 6.4 12.9 0.00 0.00 0.00 72 1013.8
20260507132408 5 302 4.8 9.7 0.00 0.00 0.00 73 1013.8
20260507132311 5 342 3.2 9.7 0.00 0.00 0.00 73 1013.8
20260507132236 5 319 3.2 9.7 0.00 0.00 0.00 73 1013.8
20260507132119 4 331 3.2 9.7 0.00 0.00 0.00 73 1013.8
20260507132005 4 337 4.8 9.7 0.00 0.00 0.00 72 1013.8
20260507131929 4 297 4.8 9.7 0.00 0.00 0.00 72 1013.9
20260507131807 4 300 6.4 9.7 0.00 0.00 0.00 72 1013.9
20260507131731 4 309 8.0 9.7 0.00 0.00 0.00 72 1013.8
20260507131634 4 309 8.0 9.7 0.00 0.00 0.00 73 1013.8
20260507131537 4 317 4.8 8.0 0.00 0.00 0.00 74 1013.8
20260507131420 4 321 4.8 6.4 0.00 0.00 0.00 75 1013.9
20260507131344 4 313 3.2 8.0 0.00 0.00 0.00 74 1013.9
20260507131212 4 350 3.2 8.0 0.00 0.00 0.00 74 1013.8
20260507131115 4 350 3.2 8.0 0.00 0.00 0.00 74 1013.8
20260507131019 3 355 3.2 8.0 0.00 0.00 0.00 74 1013.8
20260507130923 3 342 3.2 8.0 0.00 0.00 0.00 75 1013.8
20260507130828 3 313 4.8 8.0 0.00 0.00 0.00 75 1013.8
20260507130711 3 307 4.8 8.0 0.00 0.00 0.00 75 1013.8
20260507130635 3 304 4.8 8.0 0.00 0.00 0.00 75 1013.8
20260507130523 3 320 6.4 8.0 0.00 0.00 0.00 76 1013.9
20260507130407 3 291 6.4 8.0 0.00 0.00 0.00 77 1013.8
20260507130331 3 293 4.8 6.4 0.00 0.00 0.00 77 1013.9
20260507130208 3 286 1.6 6.4 0.00 0.00 0.00 79 1013.9
20260507130113 3 284 1.6 4.8 0.00 0.00 0.00 79 1013.9
20260507130037 3 284 1.6 4.8 0.00 0.00 0.00 79 1013.9
20260507125920 3 284 1.6 4.8 0.00 0.00 0.00 79 1013.9
20260507125808 3 284 3.2 4.8 0.00 0.00 0.00 79 1013.9
20260507125713 3 284 3.2 4.8 0.00 0.00 0.00 79 1013.9
20260507125617 3 284 3.2 4.8 0.00 0.00 0.00 79 1013.9
20260507125521 3 284 3.2 6.4 0.00 0.00 0.00 80 1013.9
20260507125425 2 284 3.2 6.4 0.00 0.00 0.00 80 1013.9
20260507125313 2 285 3.2 6.4 0.00 0.00 0.00 80 1013.9
20260507125237 2 285 3.2 6.4 0.00 0.00 0.00 80 1013.9
20260507125121 2 285 3.2 6.4 0.00 0.00 0.00 81 1013.9
20260507124910 2 286 3.2 6.4 0.00 0.00 0.00 81 1014.0
20260507124815 2 285 4.8 6.4 0.00 0.00 0.00 81 1013.9
20260507124739 2 285 3.2 8.0 0.00 0.00 0.00 82 1013.9
20260507124607 2 275 3.2 8.0 0.00 0.00 0.00 83 1014.0
20260507124511 2 275 3.2 8.0 0.00 0.00 0.00 83 1013.9
20260507124416 2 275 4.8 8.0 0.00 0.00 0.00 83 1014.0
20260507124320 2 275 3.2 8.0 0.00 0.00 0.00 84 1014.0
20260507124244 2 275 3.2 8.0 0.00 0.00 0.00 84 1013.9
20260507124107 2 284 4.8 8.0 0.00 0.00 0.00 85 1013.9
20260507124031 2 282 4.8 8.0 0.00 0.00 0.00 85 1013.9
20260507123918 2 284 4.8 8.0 0.00 0.00 0.00 86 1014.0
20260507123842 2 269 3.2 6.4 0.00 0.00 0.00 86 1014.0
20260507123706 2 259 3.2 6.4 0.00 0.00 0.00 87 1014.0
20260507123629 1 259 3.2 6.4 0.00 0.00 0.00 87 1014.0
20260507123506 1 259 3.2 6.4 0.00 0.00 0.00 88 1014.0
20260507123430 1 259 3.2 6.4 0.00 0.00 0.00 88 1013.9
20260507123333 1 259 4.8 6.4 0.00 0.00 0.00 88 1013.9
20260507123220 1 258 3.2 6.4 0.00 0.00 0.00 89 1013.9
20260507123125 1 258 3.2 6.4 0.00 0.00 0.00 89 1013.9
20260507123009 1 257 3.2 4.8 0.00 0.00 0.00 89 1014.0
20260507122913 1 257 3.2 4.8 0.00 0.00 0.00 90 1014.0
20260507122818 1 257 3.2 4.8 0.00 0.00 0.00 90 1013.9
20260507122722 1 257 3.2 4.8 0.00 0.00 0.00 90 1014.0
20260507122611 0 257 3.2 4.8 0.00 0.00 0.00 91 1013.9
20260507122515 0 257 3.2 4.8 0.00 0.00 0.00 91 1013.9
20260507122418 0 257 3.2 4.8 0.00 0.00 0.00 91 1013.9
20260507122323 0 257 3.2 4.8 0.00 0.00 0.00 91 1013.9
20260507122208 0 270 3.2 4.8 0.00 0.00 0.00 90 1013.9
20260507122113 0 27 3.2 4.8 0.00 0.00 0.00 90 1013.9
20260507122021 0 35 1.6 4.8 0.00 0.00 0.00 90 1013.9
20260507121906 0 44 1.6 4.8 0.00 0.00 0.00 91 1014.0
20260507121830 0 44 1.6 4.8 0.00 0.00 0.00 91 1014.0
20260507121706 0 44 1.6 4.8 0.00 0.00 0.00 90 1014.0
20260507121610 0 51 3.2 4.8 0.00 0.00 0.00 90 1014.0
20260507121515 0 51 3.2 4.8 0.00 0.00 0.00 90 1014.0
20260507121424 0 51 3.2 4.8 0.00 0.00 0.00 89 1013.9
20260507121327 0 51 3.2 4.8 0.00 0.00 0.00 90 1013.9
20260507121230 0 52 3.2 3.2 0.00 0.00 0.00 89 1014.0
20260507121114 0 52 3.2 3.2 0.00 0.00 0.00 89 1013.9
20260507121019 0 52 3.2 3.2 0.00 0.00 0.00 90 1014.0
20260507120925 0 52 1.6 3.2 0.00 0.00 0.00 90 1013.9
20260507120830 0 52 0.0 3.2 0.00 0.00 0.00 90 1013.9
20260507120738 0 52 0.0 0.0 0.00 0.00 0.00 90 1013.9
20260507120643 0 52 0.0 0.0 0.00 0.00 0.00 90 1013.9
20260507120507 0 52 0.0 0.0 0.00 0.00 0.00 90 1014.0
20260507120432 0 52 0.0 0.0 0.00 0.00 0.00 90 1014.0
20260507120337 -1 52 0.0 0.0 0.00 0.00 0.00 90 1014.0
20260507120222 -1 52 0.0 0.0 0.00 0.00 0.00 91 1014.0
20260507120127 -1 52 0.0 0.0 0.00 0.00 0.00 91 1013.9
20260507120012 -1 52 0.0 0.0 0.00 0.00 0.00 91 1014.0
20260507115942 -1 52 0.0 0.0 0.00 0.00 0.00 91 1013.9
20260507115806 -1 52 0.0 0.0 0.00 0.00 0.00 91 1013.9
20260507115710 -1 52 0.0 0.0 0.00 0.00 0.00 91 1013.9
20260507115613 -1 52 0.0 0.0 0.00 0.00 0.00 91 1013.9
20260507115532 -1 52 0.0 0.0 0.00 0.00 0.00 91 1013.9
20260507115412 -1 52 0.0 0.0 0.00 0.00 0.00 90 1013.9
20260507115312 -1 52 0.0 1.6 0.00 0.00 0.00 90 1013.9
20260507115217 -1 52 0.0 1.6 0.00 0.00 0.00 90 1013.9
20260507115118 -1 52 0.0 1.6 0.00 0.00 0.00 90 1013.9
20260507115018 -1 52 0.0 1.6 0.00 0.00 0.00 90 1013.9
20260507114939 -1 52 0.0 1.6 0.00 0.00 0.00 90 1013.9
20260507114819 -1 52 0.0 1.6 0.00 0.00 0.00 90 1014.0
20260507114721 -1 52 0.0 1.6 0.00 0.00 0.00 91 1013.9
20260507114642 -1 52 0.0 1.6 0.00 0.00 0.00 91 1013.9
20260507114506 -1 52 0.0 1.6 0.00 0.00 0.00 91 1013.9
20260507114411 -1 70 0.0 0.0 0.00 0.00 0.00 90 1013.9
20260507114314 -1 70 0.0 0.0 0.00 0.00 0.00 90 1013.9
20260507114218 -1 70 0.0 0.0 0.00 0.00 0.00 90 1014.0
20260507114143 -1 70 0.0 0.0 0.00 0.00 0.00 90 1014.0
20260507114005 -2 70 0.0 0.0 0.00 0.00 0.00 90 1014.0
20260507113930 -2 70 0.0 0.0 0.00 0.00 0.00 90 1013.9
20260507113837 -2 70 0.0 0.0 0.00 0.00 0.00 90 1014.0
20260507113721 -2 70 0.0 0.0 0.00 0.00 0.00 90 1013.9
20260507113605 -2 70 0.0 0.0 0.00 0.00 0.00 90 1013.9
20260507113511 -2 70 0.0 0.0 0.00 0.00 0.00 90 1014.0
20260507113414 -2 70 0.0 0.0 0.00 0.00 0.00 90 1013.9
20260507113339 -2 70 0.0 0.0 0.00 0.00 0.00 90 1013.9
20260507113221 -2 70 0.0 0.0 0.00 0.00 0.00 90 1013.9
20260507113109 -2 70 0.0 0.0 0.00 0.00 0.00 89 1013.8
20260507113013 -2 70 0.0 0.0 0.00 0.00 0.00 89 1013.8
20260507112937 -2 70 0.0 0.0 0.00 0.00 0.00 89 1013.9
20260507112819 -2 70 0.0 0.0 0.00 0.00 0.00 89 1013.8
20260507112705 -2 70 0.0 0.0 0.00 0.00 0.00 89 1013.9
20260507112631 -2 70 0.0 0.0 0.00 0.00 0.00 89 1013.8
20260507112520 -2 70 0.0 0.0 0.00 0.00 0.00 89 1014.0
20260507112425 -2 70 0.0 0.0 0.00 0.00 0.00 89 1013.8
20260507112310 -2 70 0.0 0.0 0.00 0.00 0.00 89 1013.8
20260507112215 -2 70 0.0 0.0 0.00 0.00 0.00 89 1013.8
20260507112122 -2 70 0.0 0.0 0.00 0.00 0.00 89 1013.8
20260507112007 -2 70 0.0 0.0 0.00 0.00 0.00 89 1013.8
20260507111914 -2 70 0.0 0.0 0.00 0.00 0.00 89 1013.8
20260507111818 -2 70 0.0 0.0 0.00 0.00 0.00 89 1013.8
20260507111723 -2 70 0.0 0.0 0.00 0.00 0.00 88 1013.9
20260507111607 -2 70 0.0 0.0 0.00 0.00 0.00 88 1013.8
20260507111511 -2 70 0.0 0.0 0.00 0.00 0.00 88 1013.9
20260507111435 -2 70 0.0 0.0 0.00 0.00 0.00 88 1013.9
20260507111322 -2 70 0.0 0.0 0.00 0.00 0.00 88 1013.9
20260507111225 -2 70 0.0 0.0 0.00 0.00 0.00 88 1014.0
20260507111110 -2 70 0.0 0.0 0.00 0.00 0.00 88 1014.0
20260507111013 -2 70 0.0 0.0 0.00 0.00 0.00 88 1013.9
20260507110917 -2 70 0.0 0.0 0.00 0.00 0.00 88 1013.9
20260507110821 -2 70 0.0 0.0 0.00 0.00 0.00 88 1014.0
20260507110708 -2 70 0.0 0.0 0.00 0.00 0.00 88 1014.0
20260507110613 -2 70 0.0 0.0 0.00 0.00 0.00 88 1014.0
20260507110538 -2 70 0.0 0.0 0.00 0.00 0.00 88 1014.0
20260507110422 -2 70 0.0 0.0 0.00 0.00 0.00 88 1013.9
20260507110345 -2 70 0.0 0.0 0.00 0.00 0.00 88 1014.0
20260507110209 -1 70 0.0 0.0 0.00 0.00 0.00 88 1014.0
20260507110132 -1 70 0.0 0.0 0.00 0.00 0.00 88 1014.0
20260507110019 -1 70 0.0 0.0 0.00 0.00 0.00 88 1014.0
20260507105924 -1 70 0.0 0.0 0.00 0.00 0.00 88 1014.0
20260507105827 -1 70 0.0 1.6 0.00 0.00 0.00 88 1014.0
20260507105710 -1 70 0.0 3.2 0.00 0.00 0.00 88 1014.0
20260507105635 -1 360 0.0 3.2 0.00 0.00 0.00 88 1014.0
20260507105517 -1 360 0.0 3.2 0.00 0.00 0.00 88 1014.0
20260507105420 -1 360 0.0 3.2 0.00 0.00 0.00 88 1013.9
20260507105307 -1 51 0.0 4.8 0.00 0.00 0.00 89 1013.9
20260507105231 -1 51 0.0 4.8 0.00 0.00 0.00 89 1013.9
20260507105113 -1 51 0.0 4.8 0.00 0.00 0.00 89 1013.9
20260507105016 -1 51 1.6 4.8 0.00 0.00 0.00 89 1014.0
20260507104920 -1 51 1.6 4.8 0.00 0.00 0.00 89 1013.9
20260507104822 -1 51 1.6 4.8 0.00 0.00 0.00 89 1014.0
20260507104746 -1 51 1.6 4.8 0.00 0.00 0.00 89 1013.9
20260507104632 -1 51 1.6 4.8 0.00 0.00 0.00 89 1013.8
20260507104508 -1 51 3.2 4.8 0.00 0.00 0.00 89 1013.9
20260507104411 -1 51 3.2 4.8 0.00 0.00 0.00 89 1013.8
20260507104314 -1 51 4.8 4.8 0.00 0.00 0.00 89 1013.9
20260507104217 -1 51 4.8 4.8 0.00 0.00 0.00 89 1013.8
20260507104120 -1 51 3.2 4.8 0.00 0.00 0.00 89 1013.9
20260507104006 -1 51 3.2 4.8 0.00 0.00 0.00 89 1013.8
20260507103930 -1 51 1.6 3.2 0.00 0.00 0.00 88 1013.8
20260507103832 -1 51 1.6 3.2 0.00 0.00 0.00 88 1013.7
20260507103708 -1 51 1.6 3.2 0.00 0.00 0.00 89 1013.8
20260507103612 -1 51 1.6 3.2 0.00 0.00 0.00 89 1013.8
20260507103515 -1 51 1.6 3.2 0.00 0.00 0.00 89 1013.8
20260507103438 -1 51 1.6 3.2 0.00 0.00 0.00 89 1013.8
20260507103341 -1 51 1.6 3.2 0.00 0.00 0.00 89 1013.8
20260507103206 -1 51 1.6 4.8 0.00 0.00 0.00 89 1013.8
20260507103109 -1 51 1.6 4.8 0.00 0.00 0.00 89 1013.8
20260507103012 -1 51 1.6 4.8 0.00 0.00 0.00 89 1013.8
20260507102914 -1 51 1.6 6.4 0.00 0.00 0.00 89 1013.8
20260507102817 -1 51 1.6 6.4 0.00 0.00 0.00 89 1013.8
20260507102721 -1 51 3.2 6.4 0.00 0.00 0.00 89 1013.8
20260507102607 -1 51 3.2 6.4 0.00 0.00 0.00 89 1013.8
20260507102530 -1 51 3.2 6.4 0.00 0.00 0.00 89 1013.8
20260507102432 -1 51 3.2 6.4 0.00 0.00 0.00 89 1013.9
20260507102315 -1 51 3.2 6.4 0.00 0.00 0.00 89 1013.8
20260507102238 -1 51 4.8 6.4 0.00 0.00 0.00 89 1013.9
20260507102120 -1 51 4.8 6.4 0.00 0.00 0.00 89 1013.8
20260507102044 -1 51 4.8 6.4 0.00 0.00 0.00 89 1013.9
20260507101910 -1 51 4.8 6.4 0.00 0.00 0.00 89 1013.9
20260507101813 -1 51 4.8 6.4 0.00 0.00 0.00 89 1013.9
20260507101714 -1 51 3.2 6.4 0.00 0.00 0.00 90 1013.9
20260507101615 -1 263 0.0 3.2 0.00 0.00 0.00 89 1013.9
20260507101516 -1 263 0.0 3.2 0.00 0.00 0.00 90 1013.9
20260507101416 -1 263 0.0 3.2 0.00 0.00 0.00 89 1013.8
20260507101320 -1 263 0.0 3.2 0.00 0.00 0.00 89 1013.7
20260507101206 -1 263 0.0 4.8 0.00 0.00 0.00 89 1013.8
20260507101130 -1 263 0.0 4.8 0.00 0.00 0.00 89 1013.8
20260507101006 -1 263 1.6 4.8 0.00 0.00 0.00 89 1013.7
20260507100929 -1 263 1.6 4.8 0.00 0.00 0.00 89 1013.8
20260507100830 -1 263 1.6 4.8 0.00 0.00 0.00 89 1013.8
20260507100714 -1 263 1.6 4.8 0.00 0.00 0.00 89 1013.8
20260507100618 -1 263 1.6 4.8 0.00 0.00 0.00 89 1013.8
20260507100507 -1 263 3.2 4.8 0.00 0.00 0.00 89 1013.7
20260507100430 -1 263 3.2 4.8 0.00 0.00 0.00 89 1013.8
20260507100333 -1 263 3.2 4.8 0.00 0.00 0.00 89 1013.8
20260507100208 -1 263 3.2 4.8 0.00 0.00 0.00 89 1013.8
20260507100111 -1 263 3.2 4.8 0.00 0.00 0.00 89 1013.7
20260507100036 -1 263 3.2 4.8 0.00 0.00 0.00 89 1013.8
20260507095920 -1 263 3.2 4.8 0.00 0.00 0.00 89 1013.8
20260507095809 -1 263 3.2 4.8 0.00 0.00 0.00 89 1013.8
20260507095713 -1 263 3.2 4.8 0.00 0.00 0.00 89 1013.8
20260507095618 -1 263 3.2 3.2 0.00 0.00 0.00 89 1013.8
20260507095521 -1 263 1.6 3.2 0.00 0.00 0.00 89 1013.9
20260507095446 -1 263 1.6 3.2 0.00 0.00 0.00 89 1013.9
20260507095308 -1 263 0.0 0.0 0.00 0.00 0.00 89 1013.9
20260507095237 -1 263 0.0 0.0 0.00 0.00 0.00 89 1013.8
20260507095121 -1 263 0.0 0.0 0.00 0.00 0.00 89 1013.9
20260507095006 -1 263 0.0 0.0 0.00 0.00 0.00 89 1013.9
20260507094911 -1 263 0.0 0.0 0.00 0.00 0.00 89 1013.9
20260507094815 -1 263 0.0 0.0 0.00 0.00 0.00 89 1013.9
20260507094720 -1 263 0.0 0.0 0.00 0.00 0.00 89 1013.9
20260507094608 -1 263 0.0 0.0 0.00 0.00 0.00 89 1013.9
20260507094533 -1 263 0.0 0.0 0.00 0.00 0.00 89 1014.0
20260507094418 -1 263 0.0 0.0 0.00 0.00 0.00 89 1014.0
20260507094342 -1 263 0.0 0.0 0.00 0.00 0.00 89 1013.9
20260507094207 -1 263 0.0 0.0 0.00 0.00 0.00 89 1013.9
20260507094111 -1 263 0.0 0.0 0.00 0.00 0.00 89 1014.0
20260507094035 -1 263 0.0 0.0 0.00 0.00 0.00 89 1013.9
20260507093923 -1 263 0.0 0.0 0.00 0.00 0.00 89 1013.9
20260507093845 -1 263 0.0 0.0 0.00 0.00 0.00 89 1013.9
20260507093710 -1 263 0.0 0.0 0.00 0.00 0.00 89 1014.0
20260507093614 -1 263 0.0 0.0 0.00 0.00 0.00 89 1014.0
20260507093519 -1 263 0.0 0.0 0.00 0.00 0.00 89 1013.9
20260507093444 -1 263 0.0 0.0 0.00 0.00 0.00 89 1014.0
20260507093307 -1 263 0.0 0.0 0.00 0.00 0.00 89 1013.9
20260507093237 -1 263 0.0 0.0 0.00 0.00 0.00 89 1013.9
20260507093118 -1 263 0.0 0.0 0.00 0.00 0.00 89 1013.9
20260507093024 -1 263 0.0 0.0 0.00 0.00 0.00 89 1013.9
20260507092927 -1 263 0.0 0.0 0.00 0.00 0.00 89 1013.9
20260507092811 -1 263 0.0 0.0 0.00 0.00 0.00 90 1014.0
20260507092714 -1 263 0.0 0.0 0.00 0.00 0.00 90 1014.0
20260507092620 -1 263 0.0 0.0 0.00 0.00 0.00 90 1014.0
20260507092508 -1 263 0.0 0.0 0.00 0.00 0.00 90 1014.0
20260507092411 -1 263 0.0 0.0 0.00 0.00 0.00 90 1014.0
20260507092315 -1 263 0.0 0.0 0.00 0.00 0.00 90 1014.0
20260507092220 -1 263 0.0 0.0 0.00 0.00 0.00 90 1014.0
20260507092122 -1 263 0.0 0.0 0.00 0.00 0.00 90 1014.0
20260507092012 -1 263 0.0 1.6 0.00 0.00 0.00 90 1013.9
20260507091915 -1 263 0.0 1.6 0.00 0.00 0.00 90 1014.0
20260507091841 -1 263 0.0 1.6 0.00 0.00 0.00 90 1014.0
20260507091706 -1 263 0.0 1.6 0.00 0.00 0.00 90 1014.0
20260507091632 -1 263 0.0 1.6 0.00 0.00 0.00 90 1014.0
20260507091536 -1 263 0.0 1.6 0.00 0.00 0.00 90 1014.0
20260507091421 -1 263 0.0 1.6 0.00 0.00 0.00 90 1014.0
20260507091311 -1 263 0.0 1.6 0.00 0.00 0.00 90 1013.9
20260507091217 -1 263 0.0 1.6 0.00 0.00 0.00 90 1014.0
20260507091123 -2 263 0.0 1.6 0.00 0.00 0.00 90 1014.0
20260507091007 -2 263 0.0 0.0 0.00 0.00 0.00 90 1014.0
20260507090934 -2 263 0.0 0.0 0.00 0.00 0.00 90 1014.0
20260507090818 -2 263 0.0 1.6 0.00 0.00 0.00 90 1013.9
20260507090706 -1 263 0.0 1.6 0.00 0.00 0.00 90 1013.9
20260507090612 -2 263 0.0 1.6 0.00 0.00 0.00 90 1013.9
20260507090517 -2 263 0.0 3.2 0.00 0.00 0.00 90 1014.0
20260507090424 -2 263 0.0 3.2 0.00 0.00 0.00 90 1013.9
20260507090309 -2 263 0.0 3.2 0.00 0.00 0.00 90 1013.9
20260507090234 -2 263 0.0 3.2 0.00 0.00 0.00 90 1013.9
20260507090137 -2 263 0.0 3.2 0.00 0.00 0.00 90 1013.9
20260507090025 -2 263 0.0 3.2 0.00 0.00 0.00 90 1013.9
20260507085950 -2 263 1.6 3.2 0.00 0.00 0.00 90 1013.9
20260507085806 -2 263 1.6 4.8 0.00 0.00 0.00 90 1013.9
20260507085710 -2 263 3.2 4.8 0.00 0.00 0.00 90 1013.9
20260507085615 -2 263 3.2 4.8 0.00 0.00 0.00 90 1014.0
20260507085520 -2 263 3.2 4.8 0.00 0.00 0.00 90 1013.9
20260507085409 -2 263 3.2 4.8 0.00 0.00 0.00 90 1013.8
20260507085334 -2 263 3.2 4.8 0.00 0.00 0.00 90 1013.9
20260507085218 -2 263 3.2 4.8 0.00 0.00 0.00 90 1013.9
20260507085121 -2 263 3.2 4.8 0.00 0.00 0.00 90 1013.9
20260507085045 -2 263 3.2 4.8 0.00 0.00 0.00 90 1013.9
20260507084929 -2 263 3.2 4.8 0.00 0.00 0.00 90 1013.8
20260507084833 -2 263 3.2 4.8 0.00 0.00 0.00 90 1013.8
20260507084736 -2 263 3.2 4.8 0.00 0.00 0.00 89 1013.8
20260507084619 -2 263 3.2 4.8 0.00 0.00 0.00 89 1013.8
20260507084508 -2 263 1.6 4.8 0.00 0.00 0.00 89 1013.8
20260507084414 -2 263 3.2 4.8 0.00 0.00 0.00 89 1013.8
20260507084338 -2 263 3.2 4.8 0.00 0.00 0.00 89 1013.9
20260507084221 -2 263 3.2 4.8 0.00 0.00 0.00 89 1013.9
20260507084126 -2 263 3.2 4.8 0.00 0.00 0.00 89 1013.8
20260507084031 -2 263 3.2 4.8 0.00 0.00 0.00 89 1013.8
20260507083934 -2 263 3.2 4.8 0.00 0.00 0.00 89 1013.8
20260507083821 -2 263 3.2 4.8 0.00 0.00 0.00 89 1013.8
20260507083705 -2 272 3.2 4.8 0.00 0.00 0.00 89 1013.8
20260507083609 -2 272 3.2 4.8 0.00 0.00 0.00 89 1013.8
20260507083514 -2 272 1.6 4.8 0.00 0.00 0.00 89 1013.8
20260507083438 -2 272 1.6 4.8 0.00 0.00 0.00 89 1013.9
20260507083322 -2 272 1.6 4.8 0.00 0.00 0.00 89 1013.9
20260507083211 -2 272 3.2 4.8 0.00 0.00 0.00 89 1013.9
20260507083114 -2 272 3.2 4.8 0.00 0.00 0.00 89 1013.9
20260507083018 -2 272 3.2 4.8 0.00 0.00 0.00 89 1013.9
20260507082922 -2 272 3.2 4.8 0.00 0.00 0.00 89 1013.9
20260507082806 -2 272 1.6 3.2 0.00 0.00 0.00 88 1013.9
20260507082710 -2 272 1.6 3.2 0.00 0.00 0.00 89 1013.9
20260507082635 -2 272 1.6 3.2 0.00 0.00 0.00 89 1013.9
20260507082522 -2 272 1.6 3.2 0.00 0.00 0.00 89 1013.9
20260507082446 -2 272 1.6 3.2 0.00 0.00 0.00 89 1013.9
20260507082309 -2 272 1.6 3.2 0.00 0.00 0.00 89 1013.9
20260507082212 -2 272 1.6 3.2 0.00 0.00 0.00 88 1013.9
20260507082117 -2 272 1.6 3.2 0.00 0.00 0.00 88 1013.9
20260507082019 -2 272 1.6 4.8 0.00 0.00 0.00 88 1013.9
20260507081929 -2 272 1.6 4.8 0.00 0.00 0.00 88 1013.8
20260507081805 -2 272 1.6 4.8 0.00 0.00 0.00 88 1013.9
20260507081709 -2 272 1.6 4.8 0.00 0.00 0.00 88 1013.9
20260507081613 -2 272 1.6 4.8 0.00 0.00 0.00 88 1013.9
20260507081517 -2 272 1.6 4.8 0.00 0.00 0.00 88 1013.9
20260507081420 -2 272 3.2 4.8 0.00 0.00 0.00 88 1013.9
20260507081329 -2 272 3.2 4.8 0.00 0.00 0.00 88 1013.9
20260507081206 -2 272 3.2 4.8 0.00 0.00 0.00 88 1013.9
20260507081110 -2 272 3.2 4.8 0.00 0.00 0.00 88 1013.9
20260507081012 -2 275 3.2 3.2 0.00 0.00 0.00 88 1013.9
20260507080916 -2 276 1.6 3.2 0.00 0.00 0.00 88 1014.0
20260507080821 -2 276 1.6 3.2 0.00 0.00 0.00 88 1013.9
20260507080729 -2 276 1.6 3.2 0.00 0.00 0.00 88 1013.9
20260507080606 -2 276 1.6 3.2 0.00 0.00 0.00 88 1014.0
20260507080529 -2 276 1.6 3.2 0.00 0.00 0.00 88 1014.0
20260507080412 -2 276 3.2 3.2 0.00 0.00 0.00 88 1013.9
20260507080315 -2 276 1.6 3.2 0.00 0.00 0.00 88 1014.0
20260507080240 -2 276 1.6 3.2 0.00 0.00 0.00 88 1013.9
20260507080122 -2 276 1.6 3.2 0.00 0.00 0.00 88 1013.9
20260507080030 -2 276 1.6 3.2 0.00 0.00 0.00 88 1013.9
20260507075905 -2 276 1.6 3.2 0.00 0.00 0.00 88 1013.9
20260507075829 -2 276 1.6 3.2 0.00 0.00 0.00 88 1013.8
20260507075752 -2 276 1.6 3.2 0.00 0.00 0.00 87 1013.9
20260507075608 -2 276 1.6 3.2 0.00 0.00 0.00 87 1013.9
20260507075510 -2 281 0.0 0.0 0.00 0.00 0.00 87 1013.9
20260507075434 -2 281 0.0 0.0 0.00 0.00 0.00 87 1013.8
20260507075338 -2 281 0.0 0.0 0.00 0.00 0.00 87 1013.8
20260507075225 -2 281 0.0 0.0 0.00 0.00 0.00 87 1013.8
20260507075108 -2 281 0.0 0.0 0.00 0.00 0.00 87 1013.8
20260507075013 -2 281 0.0 0.0 0.00 0.00 0.00 87 1013.8
20260507074916 -2 281 0.0 0.0 0.00 0.00 0.00 86 1013.8
20260507074840 -2 281 0.0 0.0 0.00 0.00 0.00 86 1013.8
20260507074724 -2 281 0.0 0.0 0.00 0.00 0.00 86 1013.8
20260507074613 -2 281 0.0 0.0 0.00 0.00 0.00 86 1013.8
20260507074537 -2 281 0.0 0.0 0.00 0.00 0.00 86 1013.8
20260507074420 -2 281 0.0 0.0 0.00 0.00 0.00 86 1013.8
20260507074305 -1 281 0.0 0.0 0.00 0.00 0.00 86 1013.9
20260507074210 -1 281 0.0 0.0 0.00 0.00 0.00 86 1013.8
20260507074116 -1 281 0.0 0.0 0.00 0.00 0.00 86 1013.9
20260507074024 -1 281 0.0 0.0 0.00 0.00 0.00 86 1013.8
20260507073928 -1 281 0.0 0.0 0.00 0.00 0.00 86 1013.8
20260507073812 -1 281 0.0 0.0 0.00 0.00 0.00 86 1013.9
20260507073717 -1 281 0.0 0.0 0.00 0.00 0.00 86 1013.8
20260507073621 -1 281 0.0 0.0 0.00 0.00 0.00 86 1013.8
20260507073526 -1 281 0.0 0.0 0.00 0.00 0.00 86 1013.9
20260507073408 -1 281 0.0 0.0 0.00 0.00 0.00 86 1013.9
20260507073317 -1 281 0.0 0.0 0.00 0.00 0.00 86 1013.9
20260507073222 -1 281 0.0 0.0 0.00 0.00 0.00 86 1013.9
20260507073107 -1 281 0.0 0.0 0.00 0.00 0.00 86 1014.0
20260507073012 -1 281 0.0 0.0 0.00 0.00 0.00 86 1013.9
20260507072916 -1 281 0.0 0.0 0.00 0.00 0.00 86 1014.0
20260507072820 -1 281 0.0 0.0 0.00 0.00 0.00 86 1014.0
20260507072729 -1 281 0.0 0.0 0.00 0.00 0.00 86 1014.1
20260507072605 -1 281 0.0 0.0 0.00 0.00 0.00 86 1014.0
20260507072528 -1 281 0.0 0.0 0.00 0.00 0.00 86 1014.1
20260507072405 -1 281 0.0 0.0 0.00 0.00 0.00 86 1014.1
20260507072330 -1 281 0.0 0.0 0.00 0.00 0.00 86 1014.1
20260507072214 -1 281 0.0 0.0 0.00 0.00 0.00 86 1014.1
20260507072122 -1 281 0.0 0.0 0.00 0.00 0.00 86 1014.1
20260507072027 -1 281 0.0 0.0 0.00 0.00 0.00 86 1014.1
20260507071910 -1 281 0.0 0.0 0.00 0.00 0.00 85 1014.2
20260507071835 -1 281 0.0 0.0 0.00 0.00 0.00 85 1014.2
20260507071739 -1 281 0.0 0.0 0.00 0.00 0.00 85 1014.1
20260507071623 -1 281 0.0 0.0 0.00 0.00 0.00 85 1014.3
20260507071506 -1 281 0.0 0.0 0.00 0.00 0.00 85 1014.2
20260507071415 -1 281 0.0 0.0 0.00 0.00 0.00 85 1014.2
20260507071318 -1 281 0.0 0.0 0.00 0.00 0.00 85 1014.3
20260507071222 -1 281 0.0 0.0 0.00 0.00 0.00 85 1014.3
20260507071106 -1 281 0.0 0.0 0.00 0.00 0.00 85 1014.3
20260507071010 -1 281 0.0 0.0 0.00 0.00 0.00 85 1014.3
20260507070936 -1 281 0.0 0.0 0.00 0.00 0.00 85 1014.3
20260507070818 -1 281 0.0 0.0 0.00 0.00 0.00 84 1014.3
20260507070707 -1 281 0.0 0.0 0.00 0.00 0.00 84 1014.3
20260507070630 -1 281 0.0 0.0 0.00 0.00 0.00 84 1014.4
20260507070505 -1 281 0.0 0.0 0.00 0.00 0.00 84 1014.3
20260507070409 -1 281 0.0 0.0 0.00 0.00 0.00 84 1014.4
20260507070313 -1 281 0.0 0.0 0.00 0.00 0.00 84 1014.4
20260507070217 -1 281 0.0 0.0 0.00 0.00 0.00 84 1014.4
20260507070144 -1 281 0.0 0.0 0.00 0.00 0.00 84 1014.4
20260507070010 -1 281 0.0 0.0 0.00 0.00 0.00 84 1014.4
20260507065929 -1 281 0.0 0.0 0.00 0.00 0.00 84 1014.4
20260507065831 -1 281 0.0 0.0 0.00 0.00 0.00 84 1014.4
20260507065713 -1 281 0.0 0.0 0.00 0.00 0.00 83 1014.4
20260507065616 -1 281 0.0 0.0 0.00 0.00 0.00 83 1014.5
20260507065519 -1 281 0.0 0.0 0.00 0.00 0.00 83 1014.5
20260507065406 -1 281 0.0 0.0 0.00 0.00 0.00 83 1014.5
20260507065310 -1 281 0.0 0.0 0.00 0.00 0.00 83 1014.5
20260507065235 -1 281 0.0 0.0 0.00 0.00 0.00 83 1014.5
20260507065119 -1 281 0.0 0.0 0.00 0.00 0.00 82 1014.5
20260507065024 -1 281 0.0 0.0 0.00 0.00 0.00 82 1014.5
20260507064928 0 281 0.0 0.0 0.00 0.00 0.00 81 1014.5
20260507064811 0 281 0.0 0.0 0.00 0.00 0.00 81 1014.5
20260507064739 0 281 0.0 0.0 0.00 0.00 0.00 81 1014.5
20260507064622 0 281 0.0 0.0 0.00 0.00 0.00 81 1014.5
20260507064527 0 281 0.0 0.0 0.00 0.00 0.00 81 1014.6
20260507064410 0 281 0.0 0.0 0.00 0.00 0.00 80 1014.5
20260507064316 0 281 0.0 0.0 0.00 0.00 0.00 81 1014.5
20260507064219 0 281 0.0 0.0 0.00 0.00 0.00 80 1014.5
20260507064106 0 281 0.0 0.0 0.00 0.00 0.00 80 1014.6
20260507064009 0 281 0.0 0.0 0.00 0.00 0.00 80 1014.6
20260507063929 0 281 0.0 0.0 0.00 0.00 0.00 80 1014.5
20260507063805 0 281 0.0 0.0 0.00 0.00 0.00 80 1014.6
20260507063709 0 281 0.0 0.0 0.00 0.00 0.00 80 1014.5
20260507063613 0 281 0.0 0.0 0.00 0.00 0.00 80 1014.5
20260507063518 0 281 0.0 0.0 0.00 0.00 0.00 80 1014.6
20260507063407 0 281 0.0 0.0 0.00 0.00 0.00 80 1014.5
20260507063330 0 281 0.0 0.0 0.00 0.00 0.00 80 1014.5
20260507063213 0 281 0.0 0.0 0.00 0.00 0.00 80 1014.5
20260507063117 0 281 0.0 0.0 0.00 0.00 0.00 80 1014.6
20260507063022 0 281 0.0 0.0 0.00 0.00 0.00 80 1014.6
20260507062926 0 281 0.0 0.0 0.00 0.00 0.00 80 1014.6
20260507062813 0 281 0.0 0.0 0.00 0.00 0.00 80 1014.6
20260507062715 0 281 0.0 0.0 0.00 0.00 0.00 80 1014.6
20260507062638 0 281 0.0 0.0 0.00 0.00 0.00 80 1014.6
20260507062521 0 281 0.0 0.0 0.00 0.00 0.00 80 1014.6
20260507062424 0 281 0.0 0.0 0.00 0.00 0.00 80 1014.6
20260507062308 0 281 0.0 0.0 0.00 0.00 0.00 80 1014.6
20260507062209 0 281 0.0 0.0 0.00 0.00 0.00 80 1014.6
20260507062114 0 281 0.0 0.0 0.00 0.00 0.00 80 1014.6
20260507062015 0 281 0.0 0.0 0.00 0.00 0.00 80 1014.7
20260507061914 0 281 0.0 1.6 0.00 0.00 0.00 80 1014.6
20260507061815 0 281 0.0 1.6 0.00 0.00 0.00 80 1014.7
20260507061714 0 281 0.0 1.6 0.00 0.00 0.00 80 1014.6
20260507061615 0 281 0.0 1.6 0.00 0.00 0.00 80 1014.7
20260507061520 0 281 0.0 1.6 0.00 0.00 0.00 80 1014.7
20260507061420 0 281 0.0 1.6 0.00 0.00 0.00 80 1014.7
20260507061321 0 281 0.0 1.6 0.00 0.00 0.00 80 1014.7
20260507061222 0 281 0.0 1.6 0.00 0.00 0.00 80 1014.7
20260507061122 0 281 0.0 1.6 0.00 0.00 0.00 80 1014.7
20260507061042 0 281 0.0 0.0 0.00 0.00 0.00 80 1014.7
20260507060922 0 281 0.0 0.0 0.00 0.00 0.00 80 1014.7
20260507060826 0 281 0.0 0.0 0.00 0.00 0.00 80 1014.7
20260507060727 0 281 0.0 1.6 0.00 0.00 0.00 80 1014.7
20260507060608 0 281 0.0 3.2 0.00 0.00 0.00 80 1014.7
20260507060509 0 281 0.0 3.2 0.00 0.00 0.00 80 1014.7
20260507060409 0 281 0.0 3.2 0.00 0.00 0.00 80 1014.8
20260507060309 0 281 0.0 3.2 0.00 0.00 0.00 80 1014.7
20260507060229 0 281 0.0 3.2 0.00 0.00 0.00 80 1014.8
20260507060158 0 281 0.0 3.2 0.00 0.00 0.00 79 1014.7
20260507060007 0 281 1.6 3.2 0.00 0.00 0.00 80 1014.8
20260507055909 0 281 1.6 3.2 0.00 0.00 0.00 80 1014.8
20260507055813 1 281 1.6 3.2 0.00 0.00 0.00 80 1014.8
20260507055715 1 281 1.6 3.2 0.00 0.00 0.00 80 1014.8
20260507055618 1 281 1.6 3.2 0.00 0.00 0.00 80 1014.8
20260507055505 1 281 1.6 3.2 0.00 0.00 0.00 80 1014.8
20260507055409 1 281 1.6 3.2 0.00 0.00 0.00 80 1014.8
20260507055312 1 281 1.6 3.2 0.00 0.00 0.00 80 1014.8
20260507055215 1 281 1.6 3.2 0.00 0.00 0.00 80 1014.8
20260507055119 1 281 1.6 3.2 0.00 0.00 0.00 80 1014.8
20260507055041 1 281 1.6 1.6 0.00 0.00 0.00 80 1014.8
20260507054907 1 281 1.6 1.6 0.00 0.00 0.00 80 1014.8
20260507054831 1 281 1.6 3.2 0.00 0.00 0.00 80 1014.8
20260507054707 1 281 1.6 3.2 0.00 0.00 0.00 79 1014.9
20260507054610 1 281 1.6 3.2 0.00 0.00 0.00 78 1014.8
20260507054513 1 281 1.6 3.2 0.00 0.00 0.00 78 1014.8
20260507054416 1 281 1.6 3.2 0.00 0.00 0.00 77 1014.9
20260507054319 1 281 1.6 3.2 0.00 0.00 0.00 77 1014.8
20260507054207 1 281 1.6 3.2 0.00 0.00 0.00 77 1014.9
20260507054129 1 281 1.6 3.2 0.00 0.00 0.00 77 1014.9
20260507054011 1 281 1.6 3.2 0.00 0.00 0.00 77 1014.8
20260507053915 1 281 1.6 3.2 0.00 0.00 0.00 77 1014.9
20260507053818 1 281 1.6 3.2 0.00 0.00 0.00 77 1014.9
20260507053721 1 281 1.6 3.2 0.00 0.00 0.00 77 1014.9
20260507053608 1 281 1.6 1.6 0.00 0.00 0.00 77 1014.9
20260507053511 1 281 1.6 1.6 0.00 0.00 0.00 77 1014.9
20260507053414 1 281 0.0 1.6 0.00 0.00 0.00 77 1014.9
20260507053317 1 281 0.0 1.6 0.00 0.00 0.00 77 1014.9
20260507053219 1 281 0.0 1.6 0.00 0.00 0.00 77 1014.9
20260507053122 1 281 0.0 3.2 0.00 0.00 0.00 78 1014.9
20260507053029 1 281 0.0 3.2 0.00 0.00 0.00 78 1014.8
20260507052905 1 281 0.0 3.2 0.00 0.00 0.00 78 1014.9
20260507052808 1 281 0.0 4.8 0.00 0.00 0.00 79 1014.9
20260507052711 1 281 0.0 4.8 0.00 0.00 0.00 79 1014.8
20260507052634 1 281 1.6 4.8 0.00 0.00 0.00 79 1014.9
20260507052515 1 281 1.6 4.8 0.00 0.00 0.00 79 1014.8
20260507052439 1 281 1.6 4.8 0.00 0.00 0.00 80 1014.8
20260507052306 2 281 1.6 4.8 0.00 0.00 0.00 80 1014.9
20260507052208 2 281 3.2 4.8 0.00 0.00 0.00 80 1014.9
20260507052111 2 281 3.2 4.8 0.00 0.00 0.00 80 1014.9
20260507052014 2 281 3.2 4.8 0.00 0.00 0.00 80 1014.9
20260507051917 2 281 3.2 4.8 0.00 0.00 0.00 80 1014.9
20260507051819 2 281 3.2 4.8 0.00 0.00 0.00 80 1014.9
20260507051707 2 281 3.2 4.8 0.00 0.00 0.00 79 1014.9
20260507051609 2 281 3.2 4.8 0.00 0.00 0.00 79 1014.9
20260507051532 2 281 3.2 4.8 0.00 0.00 0.00 79 1014.9
20260507051409 2 281 3.2 4.8 0.00 0.00 0.00 79 1014.9
20260507051332 2 281 3.2 4.8 0.00 0.00 0.00 78 1014.9
20260507051208 2 281 3.2 4.8 0.00 0.00 0.00 79 1015.0
20260507051116 2 280 3.2 3.2 0.00 0.00 0.00 79 1014.9
20260507051020 2 280 3.2 3.2 0.00 0.00 0.00 79 1014.9
20260507050924 2 280 3.2 3.2 0.00 0.00 0.00 78 1015.0
20260507050808 2 280 3.2 3.2 0.00 0.00 0.00 78 1015.0
20260507050733 2 280 3.2 3.2 0.00 0.00 0.00 78 1015.0
20260507050609 2 280 1.6 3.2 0.00 0.00 0.00 77 1015.0
20260507050533 2 280 1.6 3.2 0.00 0.00 0.00 78 1015.0
20260507050420 2 280 1.6 3.2 0.00 0.00 0.00 78 1015.0
20260507050323 2 280 1.6 3.2 0.00 0.00 0.00 79 1014.9
20260507050227 2 280 1.6 3.2 0.00 0.00 0.00 78 1015.0
20260507050130 2 280 1.6 3.2 0.00 0.00 0.00 78 1015.0
20260507050029 2 280 1.6 3.2 0.00 0.00 0.00 78 1014.9
20260507045907 2 280 3.2 3.2 0.00 0.00 0.00 78 1015.0
20260507045831 2 280 3.2 3.2 0.00 0.00 0.00 78 1015.0
20260507045719 2 280 3.2 3.2 0.00 0.00 0.00 77 1015.0
20260507045644 2 280 1.6 3.2 0.00 0.00 0.00 77 1015.0
20260507045508 2 280 1.6 3.2 0.00 0.00 0.00 77 1015.0
20260507045432 2 280 1.6 3.2 0.00 0.00 0.00 77 1014.9
20260507045308 2 280 3.2 4.8 0.00 0.00 0.00 77 1015.0
20260507045232 2 280 3.2 4.8 0.00 0.00 0.00 77 1015.0
20260507045115 2 280 1.6 4.8 0.00 0.00 0.00 77 1015.0
20260507045023 2 280 1.6 4.8 0.00 0.00 0.00 78 1015.0
20260507044927 2 280 1.6 4.8 0.00 0.00 0.00 77 1015.0
20260507044810 2 280 3.2 4.8 0.00 0.00 0.00 77 1015.0
20260507044714 2 280 3.2 4.8 0.00 0.00 0.00 77 1015.0
20260507044617 2 280 3.2 4.8 0.00 0.00 0.00 78 1015.1
20260507044521 2 280 3.2 4.8 0.00 0.00 0.00 78 1015.0
20260507044430 2 281 3.2 4.8 0.00 0.00 0.00 78 1015.1
20260507044314 2 281 3.2 4.8 0.00 0.00 0.00 78 1015.1
20260507044217 2 281 3.2 4.8 0.00 0.00 0.00 78 1015.1
20260507044122 2 281 3.2 4.8 0.00 0.00 0.00 78 1015.1
20260507044005 2 281 3.2 4.8 0.00 0.00 0.00 78 1015.2
20260507043911 2 281 3.2 4.8 0.00 0.00 0.00 77 1015.1
20260507043836 2 280 3.2 4.8 0.00 0.00 0.00 77 1015.1
20260507043743 2 281 1.6 4.8 0.00 0.00 0.00 76 1015.1
20260507043628 2 281 3.2 4.8 0.00 0.00 0.00 76 1015.1
20260507043530 2 280 3.2 4.8 0.00 0.00 0.00 76 1015.1
20260507043406 2 281 3.2 4.8 0.00 0.00 0.00 77 1015.1
20260507043311 2 281 3.2 4.8 0.00 0.00 0.00 77 1015.1
20260507043215 2 281 3.2 4.8 0.00 0.00 0.00 77 1015.1
20260507043118 2 280 3.2 4.8 0.00 0.00 0.00 76 1015.1
20260507043028 2 280 3.2 4.8 0.00 0.00 0.00 76 1015.1
20260507042952 2 281 3.2 4.8 0.00 0.00 0.00 76 1015.1
20260507042808 2 281 3.2 4.8 0.00 0.00 0.00 76 1015.2
20260507042733 2 281 3.2 4.8 0.00 0.00 0.00 76 1015.1
20260507042637 2 280 3.2 4.8 0.00 0.00 0.00 75 1015.1
20260507042519 2 281 3.2 4.8 0.00 0.00 0.00 75 1015.1
20260507042425 2 282 3.2 4.8 0.00 0.00 0.00 75 1015.1
20260507042313 2 282 3.2 4.8 0.00 0.00 0.00 75 1015.1
20260507042217 2 282 3.2 4.8 0.00 0.00 0.00 75 1015.1
20260507042122 2 283 3.2 4.8 0.00 0.00 0.00 75 1015.1
20260507042027 2 284 3.2 4.8 0.00 0.00 0.00 75 1015.1
20260507041952 2 284 3.2 4.8 0.00 0.00 0.00 75 1015.1
20260507041808 2 294 3.2 4.8 0.00 0.00 0.00 75 1015.1
20260507041717 2 294 3.2 4.8 0.00 0.00 0.00 74 1015.1
20260507041620 2 296 3.2 3.2 0.00 0.00 0.00 74 1015.1
20260507041525 2 296 1.6 3.2 0.00 0.00 0.00 74 1015.1
20260507041447 2 296 1.6 3.2 0.00 0.00 0.00 75 1015.1
20260507041309 2 296 1.6 3.2 0.00 0.00 0.00 74 1015.1
20260507041214 2 296 1.6 3.2 0.00 0.00 0.00 74 1015.1
20260507041119 2 296 1.6 3.2 0.00 0.00 0.00 73 1015.2
20260507041007 2 296 1.6 3.2 0.00 0.00 0.00 73 1015.2
20260507040911 2 296 1.6 3.2 0.00 0.00 0.00 73 1015.1
20260507040813 2 296 1.6 3.2 0.00 0.00 0.00 73 1015.1
20260507040717 2 296 1.6 3.2 0.00 0.00 0.00 73 1015.2
20260507040641 3 296 1.6 3.2 0.00 0.00 0.00 73 1015.1
20260507040523 3 296 3.2 3.2 0.00 0.00 0.00 73 1015.1
20260507040412 3 296 3.2 3.2 0.00 0.00 0.00 73 1015.1
20260507040317 3 296 1.6 3.2 0.00 0.00 0.00 73 1015.2
20260507040220 3 296 1.6 3.2 0.00 0.00 0.00 73 1015.2
20260507040144 3 296 1.6 3.2 0.00 0.00 0.00 73 1015.2
20260507040007 3 296 1.6 3.2 0.00 0.00 0.00 73 1015.2
20260507035912 3 296 1.6 3.2 0.00 0.00 0.00 73 1015.2
20260507035816 3 296 0.0 3.2 0.00 0.00 0.00 73 1015.2
20260507035725 3 296 0.0 3.2 0.00 0.00 0.00 73 1015.2
20260507035629 3 296 0.0 3.2 0.00 0.00 0.00 73 1015.2
20260507035534 3 296 0.0 3.2 0.00 0.00 0.00 73 1015.2
20260507035416 3 296 0.0 3.2 0.00 0.00 0.00 71 1015.2
20260507035322 3 296 0.0 3.2 0.00 0.00 0.00 70 1015.2
20260507035245 3 296 0.0 3.2 0.00 0.00 0.00 70 1015.2
20260507035109 3 296 0.0 3.2 0.00 0.00 0.00 71 1015.2
20260507035018 3 296 1.6 3.2 0.00 0.00 0.00 71 1015.2
20260507034922 3 296 1.6 3.2 0.00 0.00 0.00 72 1015.2
20260507034807 3 296 1.6 3.2 0.00 0.00 0.00 73 1015.3
20260507034711 3 296 1.6 3.2 0.00 0.00 0.00 73 1015.3
20260507034616 3 296 1.6 3.2 0.00 0.00 0.00 73 1015.3
20260507034520 3 296 1.6 3.2 0.00 0.00 0.00 72 1015.3
20260507034429 3 296 1.6 3.2 0.00 0.00 0.00 72 1015.3
20260507034305 3 296 1.6 3.2 0.00 0.00 0.00 71 1015.3
20260507034210 3 296 1.6 1.6 0.00 0.00 0.00 71 1015.3
20260507034135 3 296 1.6 1.6 0.00 0.00 0.00 71 1015.2
20260507034020 3 296 1.6 1.6 0.00 0.00 0.00 71 1015.3
20260507033923 3 296 0.0 3.2 0.00 0.00 0.00 69 1015.3
20260507033812 3 296 0.0 3.2 0.00 0.00 0.00 69 1015.3
20260507033716 3 296 0.0 3.2 0.00 0.00 0.00 69 1015.2
20260507033620 3 296 1.6 3.2 0.00 0.00 0.00 69 1015.3
20260507033505 3 296 1.6 3.2 0.00 0.00 0.00 70 1015.2
20260507033430 3 296 1.6 3.2 0.00 0.00 0.00 70 1015.4
20260507033313 3 296 1.6 3.2 0.00 0.00 0.00 71 1015.3
20260507033238 3 296 1.6 3.2 0.00 0.00 0.00 71 1015.3
20260507033145 3 296 1.6 3.2 0.00 0.00 0.00 71 1015.3
20260507033009 3 296 1.6 3.2 0.00 0.00 0.00 70 1015.4
20260507032913 3 296 1.6 3.2 0.00 0.00 0.00 70 1015.3
20260507032837 3 296 3.2 3.2 0.00 0.00 0.00 69 1015.3
20260507032721 3 296 3.2 3.2 0.00 0.00 0.00 69 1015.3
20260507032605 3 296 3.2 3.2 0.00 0.00 0.00 68 1015.3
20260507032513 3 296 3.2 3.2 0.00 0.00 0.00 68 1015.3
20260507032418 3 296 3.2 3.2 0.00 0.00 0.00 67 1015.4
20260507032344 4 296 3.2 3.2 0.00 0.00 0.00 67 1015.3
20260507032227 4 296 3.2 3.2 0.00 0.00 0.00 66 1015.3
20260507032111 4 296 3.2 3.2 0.00 0.00 0.00 66 1015.3
20260507032015 4 296 3.2 3.2 0.00 0.00 0.00 66 1015.3
20260507031937 4 296 3.2 3.2 0.00 0.00 0.00 65 1015.2
20260507031805 4 296 1.6 3.2 0.00 0.00 0.00 65 1015.2
20260507031729 4 296 1.6 3.2 0.00 0.00 0.00 65 1015.2
20260507031606 5 296 0.0 0.0 0.00 0.00 0.00 65 1015.1
20260507031530 5 296 0.0 0.0 0.00 0.00 0.00 64 1015.2
20260507031414 5 296 0.0 0.0 0.00 0.00 0.00 62 1015.1
20260507031318 5 296 0.0 3.2 0.00 0.00 0.00 62 1015.1
20260507031220 5 296 0.0 3.2 0.00 0.00 0.00 62 1015.1
20260507031129 5 296 0.0 3.2 0.00 0.00 0.00 62 1015.2
20260507031005 5 296 0.0 3.2 0.00 0.00 0.00 62 1015.2
20260507030910 5 296 0.0 3.2 0.00 0.00 0.00 63 1015.2
20260507030814 5 296 0.0 3.2 0.00 0.00 0.00 63 1015.3
20260507030737 5 296 0.0 3.2 0.00 0.00 0.00 64 1015.3
20260507030620 5 296 0.0 3.2 0.00 0.00 0.00 65 1015.3
20260507030507 5 296 1.6 4.8 0.00 0.00 0.00 66 1015.4
20260507030430 5 296 1.6 4.8 0.00 0.00 0.00 66 1015.4
20260507030352 5 296 1.6 4.8 0.00 0.00 0.00 66 1015.4
20260507030207 5 296 1.6 4.8 0.00 0.00 0.00 66 1015.4
20260507030132 5 296 1.6 4.8 0.00 0.00 0.00 66 1015.4
20260507030034 5 296 1.6 4.8 0.00 0.00 0.00 66 1015.5
20260507025937 5 296 1.6 4.8 0.00 0.00 0.00 66 1015.4
20260507025840 5 296 3.2 4.8 0.00 0.00 0.00 66 1015.5
20260507025723 5 296 3.2 4.8 0.00 0.00 0.00 66 1015.5
20260507025611 5 296 3.2 4.8 0.00 0.00 0.00 66 1015.5
20260507025535 5 296 3.2 4.8 0.00 0.00 0.00 65 1015.5
20260507025417 5 297 3.2 4.8 0.00 0.00 0.00 65 1015.4
20260507025320 5 306 3.2 4.8 0.00 0.00 0.00 65 1015.5
20260507025224 5 306 3.2 4.8 0.00 0.00 0.00 65 1015.4
20260507025128 5 306 3.2 4.8 0.00 0.00 0.00 65 1015.5
20260507025011 5 306 3.2 4.8 0.00 0.00 0.00 64 1015.5
20260507024920 5 306 3.2 4.8 0.00 0.00 0.00 65 1015.5
20260507024824 5 306 3.2 4.8 0.00 0.00 0.00 63 1015.5
20260507024729 5 306 3.2 4.8 0.00 0.00 0.00 63 1015.4
20260507024630 5 306 3.2 4.8 0.00 0.00 0.00 64 1015.4
20260507024507 5 306 3.2 4.8 0.00 0.00 0.00 64 1015.4
20260507024412 5 306 3.2 4.8 0.00 0.00 0.00 63 1015.4
20260507024321 5 306 3.2 4.8 0.00 0.00 0.00 62 1015.4
20260507024224 5 306 1.6 4.8 0.00 0.00 0.00 61 1015.4
20260507024129 5 306 3.2 4.8 0.00 0.00 0.00 61 1015.4
20260507024005 5 306 3.2 6.4 0.00 0.00 0.00 60 1015.4